ECMWFFLT1_850_thetae_000.txt.gz
Theta_e
314 312 310 309 308 307 306 306 306 305 307 313 315 314 313 311 313 314 313 315 316 317 319 321 321 319 318 319 321 323 322 320 320 321 326 331 332 332 330 328 327 327 328 328 328 327 327 329 330 330 330 329 329 328 327 327 326 326 326 326 325 325 326
314 312 313 313 309 306 306 306 306 306 306 307 308 311 312 309 309 310 311 312 314 315 316 318 322 323 323 322 321 323 325 324 322 322 324 327 329 331 331 328 325 324 324 325 327 326 326 326 327 330 330 330 329 328 328 327 327 326 325 325 324 325 327
315 313 313 313 308 307 308 307 306 307 307 307 306 307 308 307 306 306 306 307 309 312 312 314 317 320 323 323 321 321 324 326 325 324 325 325 326 329 330 330 327 325 324 324 326 326 326 326 326 328 328 330 330 329 328 327 327 327 326 325 324 325 326
314 312 310 312 310 308 308 308 307 308 308 307 306 306 307 306 305 305 305 305 305 306 308 310 312 314 318 321 322 321 321 324 325 325 325 325 326 327 328 329 328 327 326 326 326 326 325 325 325 326 326 327 328 329 329 329 328 327 326 325 325 325 325
313 310 309 311 312 308 307 307 308 309 310 311 310 309 309 307 305 306 305 305 305 304 305 306 307 310 313 316 318 319 319 320 321 323 324 324 325 326 326 326 327 326 326 326 327 326 326 325 325 325 326 325 326 327 329 330 329 328 327 326 327 327 326
312 310 309 310 310 307 307 308 308 308 309 311 312 310 308 306 305 306 305 305 305 305 305 304 303 305 307 309 311 314 317 319 319 320 322 323 324 325 325 324 325 325 325 326 326 326 326 326 325 325 325 326 326 326 327 329 329 329 328 327 328 328 328
312 311 309 308 308 308 308 308 307 306 306 307 309 308 307 305 305 305 305 305 305 305 305 305 304 303 303 306 308 309 312 315 317 319 320 321 323 324 324 324 324 324 325 325 325 325 326 326 325 325 325 326 326 324 325 327 328 329 329 328 328 328 328
312 310 309 307 308 308 307 306 306 306 306 306 307 308 307 306 305 305 305 305 305 305 305 304 304 303 303 304 306 308 309 309 313 316 318 319 321 322 323 323 323 323 324 324 324 325 325 326 325 325 326 326 326 324 324 326 327 328 329 329 328 328 328
312 310 309 308 308 308 306 306 306 306 306 306 306 306 306 306 305 305 304 304 304 305 305 305 304 304 304 304 305 307 308 308 310 314 317 318 318 319 320 322 322 323 324 323 323 323 324 325 325 324 325 325 325 325 325 327 326 325 327 328 328 328 328
311 310 309 308 308 307 306 306 306 306 306 305 306 305 306 305 305 304 304 303 304 305 306 306 306 306 305 304 305 307 309 311 313 315 317 318 318 317 318 320 321 321 322 323 323 322 322 323 323 323 324 323 324 326 326 327 325 323 324 326 328 328 327
311 309 308 307 307 306 306 306 306 306 306 306 305 305 305 304 304 304 304 304 305 307 307 308 309 309 308 306 305 306 309 312 314 315 316 317 319 319 318 319 320 320 320 321 323 324 323 323 323 323 322 321 322 325 326 327 325 323 322 323 326 327 327
311 310 308 307 307 306 306 306 306 306 306 305 305 304 304 303 303 303 303 303 304 305 307 308 309 309 309 308 307 305 307 310 313 314 314 315 318 320 320 320 320 321 321 321 321 322 323 324 323 322 322 321 322 324 326 326 326 324 322 322 324 326 327
310 309 308 307 307 306 306 306 306 306 305 305 304 304 303 303 303 303 303 302 302 303 306 307 308 308 308 309 308 307 306 307 310 312 313 315 316 319 320 321 321 321 321 322 321 320 322 324 324 322 322 322 322 322 324 326 327 326 324 323 323 325 326
310 309 308 308 307 307 307 306 306 305 305 304 304 303 303 303 303 303 303 303 302 302 304 306 307 307 307 308 308 308 307 306 307 309 312 314 315 317 319 320 320 321 321 322 322 321 322 324 324 323 323 323 322 322 323 324 325 325 324 324 323 323 325
310 309 308 307 307 306 306 306 305 305 304 304 304 303 304 304 304 304 303 303 303 303 304 305 306 306 306 307 307 308 307 307 306 307 309 311 313 315 317 319 320 320 321 322 322 322 323 322 321 321 321 322 323 323 323 324 324 323 322 322 322 321 322
310 309 308 307 307 306 306 306 305 304 304 304 304 304 304 304 304 304 304 304 304 305 305 305 305 306 306 306 307 308 308 307 306 306 306 307 309 312 314 316 319 320 320 321 322 322 322 322 321 320 318 319 321 323 323 324 324 324 322 321 321 321 322
311 310 309 307 307 306 306 305 305 304 304 304 305 305 305 305 304 304 303 304 305 305 305 305 305 305 305 306 307 308 308 308 307 306 306 306 306 308 310 313 316 319 320 320 321 322 322 321 321 321 320 320 321 323 324 325 325 325 324 322 321 322 323
311 310 309 308 307 306 306 305 304 304 305 305 305 305 305 305 304 304 304 304 304 304 305 305 305 304 305 306 307 307 307 307 308 308 307 307 307 307 308 309 312 315 318 319 320 321 321 322 321 321 321 322 323 324 325 327 327 326 326 324 323 322 323
311 311 310 308 307 307 306 305 305 305 305 305 305 305 304 304 304 304 304 304 303 303 303 303 304 304 305 306 307 306 306 306 307 308 308 308 308 308 308 308 309 312 315 317 318 318 320 321 321 321 321 322 324 326 327 328 328 327 327 325 324 323 323
311 311 310 309 308 307 306 305 305 305 305 305 304 303 303 303 303 303 303 303 303 303 303 303 304 305 306 306 306 306 306 306 306 307 308 308 308 308 308 308 309 309 312 315 316 316 317 319 321 322 322 322 323 325 327 328 328 328 328 326 325 324 323
311 310 310 309 308 307 306 305 305 305 304 303 303 302 302 303 303 303 303 303 303 303 303 303 303 304 306 306 306 305 305 305 305 305 306 307 308 308 309 309 309 309 310 312 315 316 316 317 318 320 321 322 323 324 325 326 327 328 328 327 326 325 324
311 311 310 309 307 306 306 305 305 304 303 303 303 303 303 303 303 303 303 303 303 303 303 303 303 304 305 305 304 304 304 304 304 304 305 305 306 307 307 308 309 309 309 309 312 314 316 316 316 317 319 321 322 323 324 325 326 327 327 327 327 326 324
310 310 309 308 307 306 306 306 305 304 304 303 303 303 303 303 303 303 303 302 302 302 302 302 303 303 303 304 303 303 303 303 303 303 304 304 304 305 305 306 307 308 309 309 309 310 313 315 315 315 316 318 320 322 323 324 325 326 327 327 327 326 325
310 309 308 307 307 307 306 305 305 304 304 303 303 303 303 303 302 302 302 302 301 301 301 301 301 302 302 302 302 302 302 302 301 301 302 303 303 304 304 305 306 307 307 308 308 309 310 312 313 314 314 315 317 320 322 323 324 325 326 326 326 326 325
310 309 308 307 307 306 306 305 305 304 304 303 303 303 303 302 302 301 301 301 300 300 300 300 300 300 301 301 301 301 301 301 301 301 301 301 301 302 303 304 305 305 306 307 308 308 309 310 311 312 313 313 314 317 320 322 322 322 324 325 327 327 326
309 308 308 307 306 306 305 305 304 304 304 303 303 302 302 302 301 301 300 300 300 299 299 299 299 299 299 299 300 300 300 300 300 300 300 300 300 301 301 302 303 304 305 306 307 308 309 309 310 311 312 312 312 313 315 318 320 321 321 321 324 326 327
308 307 307 306 305 305 305 304 304 304 303 303 303 302 302 301 300 300 300 299 299 299 298 298 298 298 298 298 298 298 298 299 299 299 299 300 300 300 301 301 301 302 303 304 306 308 309 310 310 311 313 314 313 313 312 314 316 319 320 320 320 322 325
307 307 306 305 305 305 305 304 303 303 303 302 302 302 301 300 300 299 299 299 299 299 298 298 297 297 297 297 297 297 297 297 297 298 298 298 299 299 299 300 300 301 301 302 303 306 309 311 311 312 314 315 316 315 314 313 314 316 318 320 320 320 321
306 306 305 305 305 305 305 304 303 303 302 302 301 301 300 300 299 299 299 299 299 298 298 297 297 297 297 297 297 296 297 296 296 296 297 297 298 298 298 299 299 300 301 301 301 303 306 310 312 312 315 316 316 316 316 315 315 315 316 318 320 321 320
306 306 305 305 305 305 304 304 303 302 301 301 301 300 300 299 299 299 299 298 298 298 297 297 297 296 296 296 296 296 296 296 295 295 296 297 297 298 298 298 299 299 300 300 300 301 303 307 311 313 314 315 316 317 317 317 317 317 317 317 318 320 320
305 305 305 305 304 304 304 303 302 301 300 300 300 300 299 298 298 298 298 298 297 297 296 296 296 295 295 295 295 295 295 295 295 295 295 296 297 297 298 298 298 299 299 299 300 300 301 304 308 311 312 313 315 316 317 318 318 319 318 318 318 318 319
304 304 304 304 304 303 303 302 301 300 300 300 299 299 298 298 298 298 297 297 296 296 295 295 295 295 295 295 295 295 295 295 295 295 295 295 296 297 297 297 298 298 299 299 299 299 300 301 304 308 310 311 313 315 317 318 319 319 319 319 320 320 319
303 303 303 303 302 302 301 301 300 299 299 299 298 298 298 297 297 297 297 296 296 295 294 294 294 294 294 294 294 294 294 294 294 295 295 295 296 296 296 297 297 298 299 299 299 299 300 300 302 305 308 309 311 313 316 318 318 319 319 320 321 322 320
301 301 301 301 301 301 300 300 299 298 298 298 297 297 297 297 297 296 296 295 295 294 294 294 293 293 293 293 293 293 293 294 294 295 295 295 295 296 296 296 297 297 298 299 299 299 300 300 301 302 305 309 311 312 315 317 318 319 319 319 320 322 322
299 300 300 301 301 300 300 299 299 298 298 297 297 297 296 296 296 296 295 294 294 294 293 293 293 293 293 293 293 293 293 294 294 295 295 295 296 296 296 296 297 297 298 299 299 300 300 300 300 300 303 308 311 312 313 315 316 318 319 319 319 321 322
300 300 300 300 300 299 299 299 298 298 297 297 296 296 295 295 295 295 294 294 293 293 293 293 293 293 293 293 293 293 293 293 294 294 295 295 295 296 296 296 296 297 298 299 299 300 300 300 300 301 302 306 310 313 312 311 313 316 318 318 319 320 322
299 299 299 299 298 298 299 299 298 297 297 296 296 295 295 294 294 293 293 293 293 292 292 292 292 292 293 292 292 292 293 293 293 294 294 294 295 295 296 297 297 298 298 299 299 300 300 301 302 303 303 305 309 313 311 309 311 315 317 318 319 320 321

ECMWFFLT1_850_thetae_003.txt.gz
Theta_e
313 312 312 311 310 309 307 307 307 306 306 306 305 305 305 306 307 308 309 310 311 313 314 313 313 313 314 315 317 318 318 319 320 320 320 322 326 327 329 330 330 330 330 329 328 328 329 328 328 329 329 330 330 329 329 328 327 327 327 327 325 325 326
312 312 312 312 311 309 308 308 307 307 307 306 306 306 305 305 305 305 305 306 308 310 312 313 314 314 313 313 314 316 318 320 322 323 323 323 322 322 323 326 329 331 331 330 328 328 329 328 328 328 328 329 330 330 329 329 328 328 328 327 326 325 326
313 313 313 312 311 309 308 308 308 307 307 307 306 306 306 305 305 305 305 304 305 306 307 309 311 313 315 315 315 315 317 319 322 324 326 325 324 323 323 324 327 329 331 331 328 327 329 329 327 326 326 327 329 330 330 329 328 328 328 328 327 326 326
314 314 313 312 311 310 309 308 308 308 307 307 307 306 306 306 306 306 305 305 305 305 305 305 306 307 310 312 314 314 315 317 320 322 324 325 325 325 325 326 326 326 328 330 329 327 328 328 327 325 325 326 328 329 330 330 329 328 328 327 327 327 326
314 314 313 312 310 310 310 308 308 308 307 307 307 307 307 306 306 305 305 305 305 305 305 304 304 304 305 305 306 308 311 314 316 319 321 322 323 324 324 326 326 325 326 328 329 328 327 326 325 324 324 325 326 327 327 328 328 328 328 328 328 327 327
314 314 313 311 310 310 310 308 308 308 307 307 307 307 307 306 306 305 305 305 305 305 304 304 304 304 304 304 303 303 306 309 312 316 319 320 321 322 322 323 324 325 325 325 327 328 327 326 325 325 325 325 325 326 326 326 326 326 326 328 328 328 327
314 314 313 311 310 310 309 308 308 308 307 307 307 307 306 306 306 305 305 305 304 304 304 303 303 303 303 304 304 303 303 304 307 310 314 318 320 321 321 321 322 324 324 324 325 326 327 327 328 327 327 327 326 326 326 325 326 326 325 326 327 328 328
314 314 313 311 310 310 309 309 308 307 306 306 306 306 306 306 306 305 305 305 304 303 303 302 302 303 303 304 304 303 303 302 303 305 308 312 315 318 320 320 321 322 323 323 324 325 325 326 326 326 326 327 327 326 326 326 325 325 325 325 325 326 328
312 312 313 312 310 309 309 309 308 307 306 306 306 306 306 306 306 305 305 304 303 303 302 302 302 303 303 304 304 303 303 302 302 303 305 307 309 312 317 319 321 321 321 321 322 323 324 324 324 324 325 326 327 327 326 325 325 325 324 325 325 324 327
311 311 312 311 310 309 309 309 308 307 306 306 306 306 306 306 305 305 304 303 303 303 302 302 302 303 303 304 304 304 304 303 303 303 304 306 307 308 310 314 318 319 319 319 320 321 322 323 323 324 324 325 326 326 326 325 325 325 324 324 325 324 326
310 310 310 311 310 310 310 309 308 307 306 306 306 306 306 305 305 304 303 303 303 303 302 302 302 302 303 303 304 305 305 305 304 304 304 305 306 308 309 311 313 316 317 318 318 318 319 321 321 322 324 324 325 325 326 326 325 325 324 324 324 324 324
310 310 310 310 310 310 310 309 307 306 306 306 306 306 306 305 304 303 303 303 303 303 302 302 302 302 302 303 304 304 305 306 305 305 304 304 305 307 310 312 314 315 316 317 319 318 318 319 320 320 321 323 324 325 325 326 326 324 323 322 323 324 324
310 310 310 310 310 310 309 308 307 306 306 306 306 306 305 304 303 303 303 303 303 303 303 302 302 302 302 303 303 304 305 306 307 306 305 305 305 306 309 312 314 315 317 319 319 319 318 318 319 320 321 322 323 324 325 326 326 324 322 322 322 324 325
310 310 309 309 309 309 309 308 307 307 306 306 306 305 305 304 303 303 303 303 303 303 303 302 302 303 303 303 303 303 304 305 306 307 307 307 306 306 307 310 311 313 317 319 320 319 319 318 319 320 321 321 321 321 323 325 326 324 322 322 323 324 325
310 310 309 309 309 309 309 308 307 307 306 306 306 305 304 303 303 303 303 303 303 303 303 303 303 304 304 304 304 303 303 304 305 306 307 308 308 308 307 308 309 311 314 318 320 320 320 320 320 320 320 320 321 320 321 324 326 324 322 322 323 324 325
310 310 309 309 309 309 308 308 307 307 306 306 305 304 303 303 303 303 303 303 303 303 303 303 304 304 304 304 304 304 304 303 303 304 304 306 308 309 309 308 307 308 311 316 319 319 320 320 320 320 320 321 321 321 322 323 324 324 323 322 322 323 324
310 310 309 309 309 308 308 308 307 307 306 305 304 303 303 303 303 303 303 303 303 303 303 303 304 304 304 304 304 304 303 303 303 303 304 305 307 309 310 310 309 307 308 312 316 319 320 320 320 321 321 321 321 322 322 322 322 322 321 320 320 321 322
310 310 309 309 309 309 308 307 307 306 305 304 303 303 303 303 303 303 303 303 303 303 303 303 303 303 303 303 303 303 303 303 304 304 305 306 307 308 309 310 311 310 308 309 311 316 319 319 320 320 320 321 321 322 322 322 322 321 321 320 320 321 322
310 310 310 309 309 309 308 307 306 305 304 303 303 303 303 303 303 303 303 302 302 302 302 303 302 302 302 302 302 303 303 304 304 305 306 306 307 308 308 308 309 310 310 309 308 311 314 318 319 320 320 320 321 321 322 322 322 321 321 321 321 322 324
311 311 311 310 310 309 308 307 306 304 304 303 303 303 303 303 303 303 302 302 302 302 303 303 303 302 302 302 302 302 303 303 303 303 304 304 305 306 307 307 307 308 309 310 310 309 310 313 317 319 319 319 320 320 320 321 322 321 322 322 322 322 324
312 312 311 311 310 309 308 307 306 304 304 304 304 304 304 303 303 302 302 302 302 302 303 303 303 302 302 302 302 302 302 302 302 302 302 302 303 304 304 304 305 305 306 307 309 309 309 310 312 315 318 318 319 319 319 319 320 321 322 323 323 322 323
313 312 312 311 310 309 308 307 306 305 304 304 304 304 303 303 302 302 302 302 302 302 302 302 302 301 301 301 301 302 302 301 302 302 302 302 302 302 303 303 303 304 304 305 306 307 309 309 310 311 314 316 317 317 317 318 319 321 323 324 324 323 323
313 313 312 311 310 309 308 307 305 304 304 304 304 304 303 303 303 303 303 302 302 302 301 301 301 300 300 300 300 300 301 301 301 301 301 301 301 301 301 302 302 303 303 303 304 304 306 308 309 309 310 313 315 315 316 317 318 319 320 321 323 324 324
313 313 312 310 310 309 307 306 305 305 305 304 304 304 303 303 303 303 303 302 302 301 301 300 300 299 299 299 299 299 299 300 300 300 300 300 300 300 300 300 300 301 301 302 302 303 304 305 306 308 308 310 313 315 315 316 317 318 318 318 320 322 324
313 312 311 310 309 307 305 305 305 305 305 304 304 304 303 303 303 303 303 302 302 301 300 299 298 298 298 298 298 298 298 298 298 298 299 299 299 299 299 299 299 299 300 301 301 301 302 303 304 306 307 308 310 313 315 315 316 316 317 317 317 319 321
312 311 310 309 307 306 305 305 305 305 305 304 304 303 303 303 303 302 302 302 301 300 299 297 297 298 298 298 298 298 297 297 297 297 297 297 297 298 298 298 298 298 299 299 299 300 301 301 302 303 304 306 307 310 312 314 315 316 316 316 316 317 319
311 310 309 307 305 305 305 305 305 305 304 304 303 303 303 303 302 302 301 301 300 299 298 297 298 298 298 298 298 298 297 297 297 297 296 296 296 296 296 297 297 297 297 298 298 299 300 300 301 301 302 304 306 308 309 311 313 315 316 316 316 316 316
310 309 308 306 305 304 305 305 305 304 304 303 303 302 302 301 301 301 300 300 300 299 298 298 298 298 298 298 297 297 297 297 297 296 296 296 295 295 296 296 296 296 296 296 297 298 299 299 300 300 301 302 305 308 309 310 311 312 314 315 316 315 315
310 308 306 305 304 305 305 305 305 304 304 303 302 302 301 301 300 300 300 299 298 298 297 297 298 298 298 297 297 297 296 296 295 295 295 295 295 295 295 295 295 295 295 296 296 296 297 298 298 299 300 300 302 306 309 310 310 310 311 312 314 314 313
308 306 304 304 305 305 305 305 305 304 303 303 302 301 300 300 299 299 298 297 296 296 296 297 297 297 297 297 296 296 295 295 294 294 294 294 294 294 294 294 294 295 295 295 296 296 297 297 297 298 298 299 300 302 306 309 311 312 312 312 313 313 313
306 304 304 305 305 305 305 305 304 303 303 302 301 300 299 299 298 297 295 295 295 296 296 296 296 296 296 295 295 294 294 294 293 293 293 293 293 293 293 293 294 294 295 295 295 296 296 297 297 297 298 299 299 300 303 307 310 312 313 314 315 315 314
304 304 305 305 305 304 304 303 302 302 300 300 299 299 298 297 296 294 294 294 295 295 295 294 294 294 294 294 294 293 293 293 293 293 293 293 293 293 293 293 293 294 294 294 295 295 296 297 297 297 298 298 299 300 302 304 307 310 312 314 315 316 315
302 302 302 302 301 301 301 300 300 299 298 298 298 298 296 295 294 293 294 294 294 294 294 293 293 293 293 293 293 293 293 293 292 292 292 292 293 293 293 293 293 293 294 294 294 295 295 296 297 297 298 298 298 300 301 302 303 306 309 311 314 316 316
300 300 299 299 299 299 299 299 299 299 298 298 298 296 294 293 293 293 293 294 294 294 293 293 292 292 292 292 292 292 292 292 292 292 292 292 292 292 292 293 293 293 293 294 294 295 295 296 296 297 297 297 297 298 300 300 301 303 306 309 313 315 316
298 298 298 299 299 299 299 299 298 298 298 298 298 296 294 293 292 292 292 293 294 293 293 292 292 292 292 292 292 292 292 292 292 292 292 292 292 292 292 292 293 293 293 294 294 295 296 296 296 297 297 297 297 298 299 300 301 302 304 308 312 315 315
298 298 298 299 298 298 298 298 298 298 298 298 298 297 296 294 293 292 292 293 293 293 293 292 292 292 292 292 292 292 292 292 292 292 292 291 292 292 292 292 292 293 293 293 294 295 295 296 296 296 297 298 298 299 300 300 301 301 303 306 310 312 314
298 298 299 298 298 298 298 298 298 298 298 298 297 297 296 295 293 291 292 292 293 293 292 292 292 292 292 292 292 292 292 292 292 292 292 292 292 292 292 292 293 293 293 293 293 294 295 295 295 296 297 297 298 299 299 300 300 300 301 303 307 310 311

ECMWFFLT1_850_thetae_006.txt.gz
Theta_e
311 311 311 311 310 308 308 308 308 308 307 306 306 305 304 304 305 306 307 308 309 312 314 315 315 315 316 317 317 318 319 319 320 320 321 322 323 325 326 327 329 330 331 330 329 329 329 329 328 328 328 328 328 329 328 328 328 328 328 328 327 326 326
312 312 312 312 311 310 309 308 308 308 307 307 306 306 306 305 305 304 304 305 306 307 309 311 312 314 314 314 314 315 316 317 318 319 321 321 322 323 323 323 325 327 328 329 329 329 329 329 329 328 328 329 329 329 329 329 329 329 329 329 329 328 327
313 313 312 312 312 311 309 309 308 308 308 307 307 306 306 306 305 305 305 304 304 304 305 305 307 308 310 311 312 313 315 316 317 318 320 321 322 323 323 322 322 323 324 325 326 327 329 330 330 329 328 328 329 329 329 330 330 329 329 329 329 329 328
313 313 312 312 312 311 310 309 308 308 308 308 307 307 306 306 306 306 305 305 305 305 304 304 304 304 305 306 307 309 311 313 315 316 318 319 320 322 323 323 323 324 324 325 326 326 328 329 330 330 329 328 328 328 329 329 329 330 329 329 329 329 328
313 313 313 313 313 312 310 309 308 308 308 308 307 307 306 306 306 306 305 305 305 305 305 305 304 304 304 304 304 304 305 307 308 310 312 316 318 319 320 322 323 324 324 325 326 326 327 328 328 329 329 328 328 328 328 328 328 329 330 330 329 329 328
314 314 313 313 313 312 311 310 309 308 308 308 307 307 307 306 306 306 305 305 305 305 304 304 304 303 303 303 303 303 303 303 304 305 306 310 314 316 318 319 321 322 323 324 325 325 326 327 328 328 328 327 327 328 327 326 326 326 327 328 329 329 329
313 313 314 313 313 312 310 310 309 308 308 307 307 307 307 307 306 306 305 305 305 304 304 304 304 304 303 302 302 302 302 303 303 303 303 305 307 312 316 318 319 320 320 321 322 324 325 326 327 328 328 328 327 327 327 326 326 326 325 325 327 328 328
313 313 314 313 314 313 311 310 310 309 308 307 307 307 306 306 306 306 305 305 304 304 304 304 304 304 304 303 303 302 302 302 303 303 303 303 304 306 310 314 317 318 319 319 320 321 322 323 324 325 326 328 328 327 327 326 326 327 326 324 324 325 326
313 314 313 314 314 313 311 310 310 309 308 307 306 306 306 306 306 306 305 304 304 303 303 304 304 304 304 304 304 303 302 303 303 303 302 302 302 303 304 307 310 313 315 317 318 319 321 322 322 322 323 326 328 328 327 326 325 325 324 324 324 325 325
314 313 313 314 314 313 311 310 310 309 308 307 306 306 306 306 306 305 305 304 303 303 303 304 304 304 304 304 304 303 303 302 303 303 304 303 302 302 302 303 305 307 309 312 315 317 318 319 320 320 320 322 324 325 327 327 325 324 323 324 324 325 325
313 312 312 312 313 313 311 310 309 309 309 307 305 305 305 306 306 305 304 304 303 303 303 303 304 303 303 303 303 303 303 303 303 303 304 304 304 303 302 302 303 304 306 308 311 313 316 317 318 318 318 319 319 320 323 324 325 324 323 323 323 324 324
313 311 311 311 312 312 311 310 309 309 309 307 305 305 305 305 306 304 304 303 303 303 303 303 303 303 303 303 303 303 303 303 303 302 303 304 304 305 304 303 302 303 304 306 308 311 314 316 317 317 316 316 317 318 319 322 323 323 322 323 323 323 324
313 311 310 310 310 311 310 310 309 309 309 307 305 305 305 306 305 304 303 303 303 303 303 303 303 303 303 303 303 303 302 302 302 302 302 302 303 305 305 305 304 303 303 304 306 309 312 315 317 317 317 316 317 318 319 321 323 322 320 321 322 322 323
312 310 310 310 310 310 310 310 310 309 308 307 305 305 305 305 304 303 303 303 303 303 303 303 303 303 303 302 303 303 303 303 303 302 302 302 302 303 305 306 306 306 305 304 305 306 309 313 315 317 318 318 318 318 319 322 323 321 317 316 317 318 320
311 310 310 310 310 310 310 310 309 309 308 306 305 306 306 305 303 303 303 303 303 303 303 303 302 302 302 302 303 303 303 303 303 302 302 302 302 302 303 304 305 306 307 306 305 305 307 310 313 315 317 318 319 319 319 320 322 321 318 315 315 316 315
312 310 310 310 310 309 309 309 309 308 307 305 305 306 305 304 303 303 303 303 303 303 303 303 302 302 302 302 302 302 302 302 302 302 302 302 303 303 303 303 303 305 308 309 308 306 306 307 311 314 316 318 319 319 320 320 320 321 320 318 318 319 318
312 310 310 311 310 310 309 309 309 308 306 306 306 305 304 303 303 303 303 303 303 303 303 303 302 302 302 302 302 302 302 302 302 301 302 302 303 303 304 304 304 305 307 308 309 309 308 307 308 311 314 317 318 319 319 320 320 320 320 320 321 322 322
312 311 310 311 310 309 309 309 308 308 307 306 306 304 303 303 303 303 303 304 304 303 303 303 302 302 302 302 301 302 302 301 301 301 301 301 302 302 302 302 303 304 305 306 307 309 309 309 308 308 310 314 317 318 318 319 319 320 320 321 321 323 324
312 310 310 310 310 309 309 309 308 308 307 306 305 303 303 303 304 304 304 304 304 303 303 302 302 302 301 301 301 301 301 301 300 300 300 300 301 301 301 301 302 303 303 303 305 306 308 308 308 308 307 309 313 316 317 318 318 318 319 319 320 321 322
311 311 310 310 310 309 309 308 309 308 307 305 304 303 303 303 304 304 304 304 303 303 302 302 301 301 301 300 300 300 300 300 300 300 300 300 300 301 301 301 301 302 302 302 302 304 305 306 306 307 307 308 308 311 314 316 317 317 317 318 319 319 320
312 311 310 310 310 310 309 309 309 308 306 305 304 304 304 304 304 304 304 303 303 302 302 301 301 301 301 300 299 298 298 298 298 299 299 299 299 300 300 300 300 300 300 301 301 302 302 303 304 305 306 307 307 308 310 313 315 315 316 317 318 319 319
313 311 311 311 310 310 310 309 309 307 305 304 304 304 304 304 304 304 303 302 302 302 302 302 301 301 301 300 299 297 296 297 298 298 299 299 298 299 299 299 299 299 299 300 300 300 300 300 301 302 304 305 306 307 308 309 311 313 314 315 316 317 317
314 312 312 311 311 311 310 309 308 307 305 305 305 305 305 305 304 303 302 302 302 302 302 302 302 301 301 300 298 297 296 296 298 298 298 298 298 298 298 298 298 298 298 298 298 299 299 299 299 300 301 303 304 305 306 307 308 309 311 312 314 316 316
314 313 313 312 312 311 310 309 307 306 305 305 305 305 305 305 303 302 302 302 302 303 302 302 301 301 300 300 298 297 296 297 298 298 298 298 298 298 297 297 297 297 297 297 297 297 298 298 299 299 299 300 301 302 303 305 306 307 308 309 311 313 314
314 314 313 313 312 311 310 309 307 305 305 305 305 306 305 304 303 302 303 303 302 302 301 301 300 300 299 298 298 297 297 297 298 298 298 298 297 297 297 297 297 297 297 297 296 297 296 297 297 298 298 299 300 301 301 302 304 306 307 307 308 310 312
314 313 314 313 312 311 309 307 305 305 305 306 306 305 304 303 303 303 303 302 302 301 300 299 299 298 297 296 296 297 297 297 297 298 297 297 297 297 296 296 296 296 296 296 296 296 296 297 297 297 297 298 299 301 301 301 303 304 305 306 306 308 310
313 314 314 313 312 310 307 305 304 305 306 306 305 304 303 303 303 303 302 301 300 299 298 297 296 295 295 295 295 296 296 296 297 297 297 297 296 296 296 295 295 295 295 295 295 295 296 296 297 297 297 297 298 300 300 301 302 303 303 304 306 307 308
314 314 313 312 310 307 304 304 305 306 305 305 305 304 303 303 302 301 300 299 298 297 296 295 295 295 295 296 296 296 295 296 296 296 296 296 296 295 295 294 294 294 294 294 294 294 294 295 295 296 296 297 298 299 300 300 300 301 302 303 304 307 308
313 313 312 311 307 303 303 305 305 305 305 305 305 304 303 302 300 298 297 296 295 294 294 295 296 296 296 296 295 295 295 295 295 295 295 295 295 294 294 294 294 293 293 293 293 293 293 293 294 294 295 296 297 298 300 301 299 299 300 301 303 306 308
312 312 311 307 304 303 305 305 305 305 305 305 304 303 301 299 296 295 295 294 293 293 293 294 294 295 296 295 295 295 294 294 294 294 294 294 294 294 293 293 293 293 293 293 293 293 293 293 293 293 294 295 295 297 300 300 299 299 300 301 302 304 306
310 310 308 305 303 303 305 305 305 305 305 304 302 299 297 296 295 295 294 294 293 293 292 292 293 294 295 295 294 294 294 293 293 293 293 293 293 293 293 293 293 293 293 293 293 293 293 292 293 293 293 294 294 295 297 298 297 298 299 299 301 303 305
310 309 306 302 302 304 305 305 305 304 302 300 298 297 297 297 296 296 295 295 294 293 292 292 292 293 294 294 294 293 293 293 293 292 292 292 292 292 293 293 293 293 293 294 294 293 293 293 292 293 293 293 293 294 295 296 296 297 297 298 300 301 303
309 307 303 302 304 305 304 303 301 300 298 297 297 297 298 298 297 296 296 295 295 294 292 292 292 293 294 294 293 293 293 293 293 293 292 292 292 292 292 292 293 293 293 293 293 293 293 293 292 292 293 293 293 294 294 295 296 297 297 297 298 300 301
306 304 303 303 303 302 300 298 298 297 297 297 297 298 298 298 297 296 295 295 294 293 292 291 292 293 293 293 293 293 293 292 292 292 292 292 291 291 292 292 293 293 293 293 293 293 293 293 293 292 293 293 294 294 294 295 295 296 297 297 297 298 300
302 301 301 301 299 298 298 297 297 298 298 297 297 298 298 297 296 295 294 294 293 292 292 292 292 292 293 293 293 293 293 293 292 292 291 291 291 291 291 292 292 292 293 293 293 293 293 293 293 293 293 293 294 294 294 295 295 296 296 296 296 297 299
299 299 299 298 298 298 298 298 298 298 297 297 298 298 297 297 296 294 293 293 293 293 292 292 291 291 292 293 293 293 293 293 292 291 291 290 290 291 292 292 292 292 292 293 293 293 293 293 293 293 293 293 293 294 295 295 296 296 296 296 296 296 298
299 299 298 298 298 298 298 298 298 298 298 297 297 297 297 296 295 294 293 293 293 293 293 292 291 291 292 293 293 293 293 292 292 291 291 290 291 291 292 293 293 293 293 293 293 293 293 293 293 293 293 293 293 294 294 295 296 296 296 297 297 297 297

ECMWFFLT1_850_thetae_009.txt.gz
Theta_e
310 310 310 310 309 309 308 307 307 306 306 306 305 304 304 305 305 305 306 307 308 309 309 310 312 315 316 317 318 318 318 319 319 319 320 320 321 322 323 324 325 326 327 327 328 328 328 328 328 327 327 327 327 328 328 328 328 328 328 328 327 327 327
310 310 311 311 311 310 308 308 308 307 307 306 306 305 305 304 304 304 304 305 306 307 308 309 309 311 312 313 314 314 315 316 316 316 316 316 316 318 319 320 322 323 323 324 324 325 326 326 327 327 327 328 327 327 328 327 328 328 328 328 328 328 328
311 311 311 311 311 311 310 308 308 308 307 306 306 306 305 305 305 305 304 304 304 304 305 306 306 305 306 306 307 308 309 311 312 313 314 314 314 315 316 317 319 320 321 322 322 323 324 325 325 326 326 327 327 327 327 327 328 328 329 329 328 328 328
310 311 310 311 311 311 311 310 309 308 308 307 307 306 306 305 305 305 305 305 305 304 304 304 304 304 304 304 304 304 305 306 307 309 311 312 313 315 316 316 317 319 321 322 323 323 323 325 326 327 326 325 326 327 327 328 328 328 329 329 329 329 329
311 310 311 311 311 312 312 311 309 308 308 308 307 306 306 306 305 305 305 305 305 305 305 304 304 304 303 303 303 303 303 303 304 305 306 307 308 310 313 314 316 317 319 321 323 323 323 324 324 325 325 325 325 326 326 326 327 328 328 328 329 329 329
311 311 311 311 312 312 312 311 310 309 309 308 308 307 306 306 306 305 305 305 305 304 304 304 304 304 304 304 303 303 303 302 303 303 303 304 304 305 307 310 312 315 317 318 320 321 322 323 323 323 324 324 325 325 325 325 326 327 328 328 328 328 328
312 311 311 312 312 313 312 312 311 310 309 308 308 307 307 306 306 306 305 305 305 304 304 304 304 304 304 304 304 304 303 302 302 302 303 303 303 303 303 304 307 310 313 316 317 319 320 321 322 322 323 323 323 324 323 324 324 325 326 327 327 327 327
312 312 311 311 312 312 313 313 311 310 310 309 308 307 307 306 306 306 305 305 304 304 304 304 304 304 304 304 304 304 303 303 302 302 302 302 303 303 303 303 304 305 308 311 314 316 318 318 319 320 322 322 323 323 323 323 323 324 325 325 325 326 326
313 313 312 312 312 312 313 313 312 311 310 309 308 308 307 307 306 306 306 305 304 304 304 304 304 305 305 305 304 304 303 303 303 302 302 302 303 303 303 302 302 303 304 306 309 312 314 315 317 318 319 320 321 323 323 322 322 323 323 323 323 323 323
314 313 312 311 312 312 312 313 312 311 310 309 309 308 307 307 306 306 306 305 304 303 304 304 304 305 305 305 305 304 304 303 303 303 302 302 302 303 303 303 303 303 303 303 305 307 309 311 313 314 316 318 319 320 321 322 321 320 321 321 321 322 321
314 313 312 312 312 312 312 313 312 311 311 309 309 308 307 306 306 306 306 305 304 303 304 304 304 305 304 304 304 304 304 303 303 303 302 302 302 302 302 303 304 304 303 303 303 304 305 308 309 312 313 315 316 318 318 319 319 319 319 319 319 320 321
314 314 313 312 312 311 312 312 312 312 311 310 309 308 307 306 306 306 306 305 304 303 304 304 304 304 304 304 304 304 303 303 303 303 303 302 302 302 302 302 303 304 304 304 304 303 303 304 306 309 312 313 315 316 317 317 317 316 316 317 317 317 318
316 315 314 312 311 311 311 312 312 312 311 310 309 309 307 306 306 306 306 305 303 303 303 304 304 304 304 304 304 304 303 303 303 303 303 303 302 302 302 302 302 303 304 305 305 305 304 304 304 305 308 311 314 316 316 316 317 316 313 314 314 313 313
316 316 315 313 311 311 311 312 312 312 311 310 309 309 307 305 305 305 306 304 303 303 303 303 304 304 304 303 303 303 303 302 302 302 302 302 302 302 302 302 302 302 303 304 305 306 306 306 305 304 304 306 309 313 315 316 316 316 314 313 314 314 314
316 317 317 314 312 311 310 311 312 311 311 310 310 309 307 305 305 305 305 304 303 303 303 303 303 303 303 303 302 302 302 302 302 302 301 302 302 302 302 302 302 302 302 303 303 304 305 306 307 307 306 305 305 308 311 314 314 316 316 315 315 316 317
317 318 317 315 313 311 310 311 311 311 310 310 310 310 307 304 305 305 304 303 303 303 303 303 303 303 302 302 302 301 301 301 300 300 300 300 301 301 301 301 302 302 302 302 302 303 303 305 306 307 307 307 306 305 307 310 312 313 315 316 316 317 318
318 318 318 317 314 312 311 311 311 311 310 310 310 309 307 305 305 305 303 303 303 303 303 303 303 303 302 302 301 301 300 300 299 299 299 299 299 299 299 300 300 301 301 302 302 302 303 304 306 307 307 308 308 306 306 307 309 310 313 315 316 317 318
320 319 319 318 316 313 312 312 311 311 311 311 311 309 306 305 305 304 303 303 303 303 304 304 304 303 302 301 301 300 300 299 298 298 297 297 298 298 298 299 299 300 301 301 302 302 303 303 304 306 307 307 307 307 307 306 306 308 310 312 315 316 317
320 320 319 319 317 314 312 312 312 311 311 311 310 307 305 305 305 303 303 303 303 304 305 305 304 303 302 301 300 300 300 299 299 298 297 296 296 296 297 298 299 299 300 300 302 302 303 303 303 303 304 305 306 306 307 307 306 306 307 309 312 314 316
319 319 319 320 319 315 313 312 312 311 311 310 308 306 306 305 304 303 303 303 304 305 305 305 303 302 301 301 301 300 300 300 299 298 297 296 295 295 297 298 298 299 299 299 299 300 301 301 302 302 302 303 303 304 304 306 306 306 305 306 308 311 314
319 317 318 320 319 316 313 312 312 311 310 309 307 307 305 304 303 303 303 304 305 305 305 303 302 301 301 301 301 301 300 299 299 298 297 296 295 295 296 298 298 298 298 298 298 298 299 300 300 301 301 300 301 301 302 302 304 304 305 305 306 307 311
320 316 316 320 319 315 312 312 312 310 309 309 308 306 304 303 303 303 303 304 305 305 303 302 301 301 301 301 300 300 299 299 298 297 296 295 295 295 296 297 298 298 298 298 298 298 298 298 298 299 300 299 299 299 300 300 301 302 302 304 305 305 307
321 317 317 320 319 314 312 312 311 310 310 309 307 305 304 304 304 303 304 305 305 304 302 301 301 302 301 300 300 299 298 297 296 295 295 295 295 295 296 296 297 298 298 298 298 298 298 298 298 298 298 298 298 298 298 299 299 299 300 301 303 304 305
322 319 318 319 318 313 311 311 311 310 309 307 306 304 304 304 304 304 305 305 304 302 301 302 302 301 300 299 298 297 296 295 295 295 295 295 295 295 296 297 297 297 298 298 298 298 298 298 298 298 297 298 297 297 297 298 298 299 299 299 301 302 303
322 320 319 318 316 312 311 311 310 310 308 306 305 304 304 304 304 304 305 304 302 302 302 302 301 300 298 296 295 295 295 296 296 296 296 296 296 297 297 297 298 298 298 298 298 298 298 298 298 298 298 298 298 297 297 297 297 298 298 299 299 300 302
321 319 318 316 314 311 311 311 311 309 307 305 304 304 304 304 305 305 304 303 302 302 302 301 299 296 295 294 294 294 295 296 296 296 296 297 297 297 298 298 298 298 298 298 297 297 297 298 298 298 298 298 298 298 297 297 297 297 297 298 298 300 301
321 319 316 314 312 311 312 312 310 308 306 305 304 304 304 305 305 305 303 302 302 301 300 297 295 294 293 293 293 293 294 295 295 296 296 296 296 297 297 297 298 298 297 297 296 296 296 297 297 297 297 298 298 299 298 298 297 297 297 297 297 299 301
319 318 315 313 312 312 312 311 309 308 306 305 304 304 305 306 305 304 303 302 301 298 296 294 293 293 292 292 292 293 294 294 295 295 295 296 296 296 297 297 297 297 297 296 296 295 295 295 295 296 296 297 297 298 298 298 298 297 297 297 297 298 299
317 316 314 313 312 312 312 310 308 306 305 304 304 305 305 305 304 304 302 300 297 295 294 294 293 292 292 292 293 293 293 293 294 294 295 295 296 296 296 296 296 296 296 296 296 295 294 294 294 295 295 296 296 297 298 298 298 297 297 297 297 297 298
317 315 314 313 312 312 311 309 306 303 303 304 305 305 305 304 303 301 298 296 296 295 295 294 293 292 292 292 293 293 292 293 293 294 294 295 295 295 295 295 295 295 295 295 295 295 294 293 293 294 294 295 295 296 296 297 296 297 297 297 297 297 297
317 314 312 311 311 312 309 306 303 303 304 305 305 305 304 302 299 297 296 296 297 296 295 293 292 292 292 293 293 293 292 292 292 293 294 294 294 294 294 294 294 294 294 294 295 294 294 293 293 293 293 294 294 295 295 295 295 295 295 295 296 296 296
315 312 309 310 311 310 307 304 303 304 305 305 304 303 300 298 296 297 297 297 297 295 293 292 292 292 293 293 293 293 292 291 292 293 293 294 294 294 294 294 294 294 294 294 294 294 294 294 294 293 293 293 293 294 294 294 294 294 294 294 294 295 295
313 311 310 310 309 307 304 303 304 305 304 303 301 299 297 296 297 297 297 297 296 294 292 292 293 293 293 293 293 293 291 291 292 293 293 293 294 294 294 294 293 293 293 293 294 294 294 294 294 294 293 292 292 293 293 293 293 293 293 293 293 294 294
312 311 311 309 306 304 304 304 304 302 300 298 297 296 296 297 297 297 296 296 295 293 292 293 293 293 293 294 293 292 291 291 292 293 293 293 293 293 293 293 293 293 293 293 293 293 293 293 293 294 293 292 293 293 293 293 293 293 293 293 293 293 294
310 309 308 305 303 304 304 301 299 298 296 296 296 296 297 297 296 296 296 295 293 292 293 293 293 293 294 293 293 291 291 291 292 292 292 292 292 292 292 292 292 292 292 292 292 292 292 292 292 292 293 293 293 293 293 292 292 292 293 293 293 293 294
308 307 306 304 302 302 300 297 296 296 296 296 296 296 297 296 296 296 295 293 292 292 293 293 293 294 294 293 292 291 291 292 292 292 291 291 291 291 292 292 292 292 292 292 291 291 292 292 292 292 293 293 293 293 293 292 292 292 292 293 293 293 294
306 305 303 302 300 298 297 297 298 297 297 296 296 296 296 296 295 295 294 292 292 293 294 293 293 294 293 292 290 290 291 292 292 291 291 291 291 291 291 292 292 292 292 292 292 292 292 292 292 293 294 294 293 293 293 292 292 292 292 292 293 293 293

ECMWFFLT1_850_thetae_015.txt.gz
Theta_e
308 309 309 309 309 308 308 307 307 306 305 305 305 304 304 304 305 306 306 307 308 309 310 310 310 309 309 311 312 313 313 314 315 316 317 318 319 320 321 322 323 324 325 325 326 326 326 327 327 327 327 327 327 327 327 327 327 328 327 327 328 327 327
309 309 309 309 309 309 308 308 307 307 306 305 305 304 304 304 304 305 306 307 308 309 309 308 308 307 307 307 308 308 309 309 309 310 312 313 315 316 316 317 318 320 321 322 323 325 325 325 325 325 325 325 325 326 327 327 327 327 327 327 327 326 327
309 309 309 310 310 309 309 308 308 307 306 306 305 305 304 304 304 304 305 305 305 305 305 305 304 304 304 304 304 305 305 305 306 306 307 309 310 311 311 312 313 313 314 316 318 320 321 323 323 323 323 323 322 321 321 324 325 325 326 326 326 327 327
309 309 309 310 310 310 310 309 308 307 307 306 305 305 305 305 305 304 304 304 304 304 304 303 303 303 303 303 303 303 303 303 303 303 304 304 305 306 307 307 308 309 310 311 312 312 315 318 320 321 321 321 319 319 318 317 318 320 320 321 323 324 325
309 309 309 310 310 310 310 310 309 308 307 307 306 306 305 305 305 305 305 305 304 304 304 304 303 303 304 304 304 304 303 303 302 302 302 302 303 303 304 304 305 306 308 310 310 311 312 315 317 318 319 319 319 320 319 315 312 314 315 317 320 321 322
310 310 310 310 310 311 311 311 310 309 308 308 307 306 306 305 305 305 305 305 304 304 304 304 304 304 304 305 305 305 305 304 304 303 303 302 302 302 303 303 303 304 305 306 307 310 311 312 314 316 317 317 317 318 318 314 312 313 313 317 319 319 320
309 309 310 310 310 311 311 311 311 311 310 308 307 307 306 306 306 305 305 305 304 304 304 304 304 305 304 304 305 304 305 305 304 304 304 303 303 302 302 303 303 303 303 304 304 306 308 310 311 313 314 313 312 314 315 314 314 314 315 319 320 319 321
309 309 310 310 310 311 311 311 312 312 311 309 308 307 307 307 306 306 306 305 305 304 304 304 304 304 304 304 304 304 304 304 304 304 304 303 303 303 302 302 302 303 303 303 303 303 304 305 307 309 310 311 311 311 312 313 313 311 310 314 316 316 320
309 309 309 310 311 311 311 311 312 312 312 311 309 308 308 307 307 306 306 305 305 305 304 304 304 304 304 304 304 304 304 304 304 304 303 303 303 303 302 302 302 302 302 302 302 303 303 303 304 306 308 310 311 312 313 313 313 312 310 311 313 314 317
310 310 310 310 311 311 311 311 312 312 313 312 311 310 309 307 307 306 306 306 306 305 305 305 304 304 304 304 304 305 304 304 304 304 303 303 303 302 302 302 302 302 302 302 302 302 302 302 303 304 305 307 309 310 313 313 313 313 313 310 309 310 312
312 311 310 310 311 312 312 312 312 312 313 313 312 311 310 308 308 307 306 306 306 306 305 305 304 304 304 304 305 304 304 305 304 304 304 303 303 303 302 302 302 302 302 302 302 302 302 302 302 303 305 306 306 306 309 311 310 309 309 307 307 310 310
313 312 311 311 311 312 312 312 312 312 312 313 313 313 311 310 309 308 307 306 306 306 306 305 304 304 304 304 304 304 304 304 304 304 304 303 303 303 302 302 301 301 301 301 301 301 301 302 301 302 304 305 306 306 306 308 308 306 306 306 306 308 308
314 313 313 313 312 313 313 313 313 313 313 313 313 313 313 311 310 309 308 307 306 306 306 305 305 304 303 303 304 304 304 304 304 304 304 303 303 302 302 301 301 300 300 300 300 300 300 300 301 301 302 303 305 306 306 307 307 306 306 306 305 305 305
316 316 315 314 314 313 314 315 315 314 313 313 313 313 313 312 311 310 309 307 306 306 306 306 305 305 303 303 303 304 304 304 304 304 304 303 303 303 302 301 301 300 300 299 299 299 298 299 299 300 301 302 303 305 305 306 306 306 305 306 306 305 305
317 317 317 316 316 315 315 316 316 315 314 313 313 313 314 313 312 311 310 308 307 306 305 305 305 305 304 303 303 303 303 303 303 303 303 303 303 303 302 301 301 300 300 300 299 299 298 298 298 298 299 301 303 303 303 304 304 303 303 304 304 304 304
316 317 317 317 317 317 317 317 317 317 316 314 313 314 314 314 313 312 311 309 308 307 306 305 305 305 304 303 302 303 303 303 303 303 302 302 302 302 301 301 301 300 300 300 299 299 298 297 297 297 297 298 300 301 301 302 302 302 302 302 303 303 303
315 315 317 317 317 317 317 317 317 318 318 316 314 314 314 314 314 313 312 310 309 308 306 305 305 305 304 303 302 303 303 303 303 302 302 301 301 300 300 300 300 300 299 299 298 297 297 297 296 296 296 297 298 298 299 300 301 301 302 302 302 303 303
316 315 315 317 317 317 318 318 318 318 318 318 316 315 314 314 314 313 312 311 309 308 307 306 305 305 305 304 303 303 303 303 303 303 302 301 300 300 300 299 298 298 297 297 297 296 296 296 296 296 296 296 297 297 298 299 300 300 301 301 301 302 302
319 318 316 316 316 317 318 318 318 318 318 319 318 316 315 315 314 314 313 311 310 309 308 306 305 305 305 305 303 303 303 303 303 303 302 301 300 300 299 298 297 296 296 296 296 297 297 297 297 297 297 297 297 297 297 298 298 298 299 299 300 301 301
320 320 319 318 317 317 317 318 318 318 318 318 319 318 316 315 315 314 313 312 310 310 309 307 305 305 305 304 303 303 303 303 303 302 302 301 300 299 297 296 295 295 296 296 296 297 297 297 298 298 298 298 299 299 299 298 298 298 298 298 299 299 299
319 320 321 320 320 319 319 318 318 319 318 318 318 318 316 315 315 314 313 312 311 310 309 308 306 305 305 304 303 303 303 303 302 302 301 300 299 297 296 295 295 295 295 295 296 296 297 297 297 298 298 298 298 299 299 299 299 299 299 299 299 300 299
315 317 319 320 320 320 320 320 320 319 319 318 317 317 315 314 314 314 313 313 311 310 310 307 306 305 304 303 303 303 303 302 302 301 300 299 297 296 294 294 294 294 294 295 295 295 296 296 297 297 297 297 297 297 298 299 299 299 299 299 300 300 300
310 313 316 318 319 320 320 320 320 320 319 318 317 317 315 313 313 313 313 312 311 311 309 307 305 304 303 303 303 303 302 301 301 300 298 296 295 294 294 294 294 294 294 294 294 295 295 295 296 296 297 297 297 297 297 297 298 298 299 299 299 300 300
306 308 311 313 316 318 319 320 320 320 320 319 317 317 316 314 312 312 312 312 311 310 308 306 305 304 303 303 303 302 302 301 299 298 296 294 293 293 293 293 293 294 293 294 294 294 295 295 295 296 296 296 297 296 296 296 297 297 298 298 298 299 299
304 305 306 308 311 315 317 319 320 319 320 319 318 317 316 314 313 312 311 311 310 308 307 305 304 303 303 303 302 302 301 299 297 295 293 293 292 293 293 293 293 293 293 294 294 295 295 295 296 296 296 296 296 296 297 296 296 296 296 297 297 298 298
303 303 303 304 307 310 314 317 319 319 319 319 318 316 315 314 313 312 311 310 308 307 305 304 304 304 303 303 302 301 299 297 294 293 292 292 293 293 293 293 293 293 293 294 294 295 295 296 296 296 296 296 297 297 297 297 297 296 296 296 296 297 297
302 302 303 303 304 307 311 315 317 318 319 318 317 315 314 314 312 311 311 309 307 306 305 304 304 304 303 302 301 299 297 294 293 292 292 293 293 292 292 292 292 293 293 294 294 295 295 296 296 296 296 296 297 297 297 297 297 296 296 296 296 296 296
301 302 302 302 303 305 308 313 315 317 318 318 317 315 314 313 312 310 309 308 306 305 305 305 304 304 303 301 299 297 294 293 292 292 292 292 292 292 292 292 292 293 293 294 295 295 295 296 296 296 296 297 296 296 296 296 296 296 296 295 295 296 296
301 302 302 302 302 303 306 310 313 316 317 317 315 314 313 312 311 309 308 307 306 305 305 305 304 303 301 299 297 294 293 292 292 292 292 292 292 292 292 292 292 293 293 294 295 295 295 295 295 296 296 296 296 296 296 295 295 295 295 295 295 295 295
301 301 302 302 302 302 305 309 313 315 317 316 314 314 313 311 310 309 307 306 305 305 305 305 303 301 298 296 294 293 292 292 292 292 292 292 292 292 292 292 292 293 293 294 295 295 295 295 295 295 295 295 294 295 294 294 295 295 295 295 295 295 295
300 302 302 302 302 302 305 310 314 315 316 315 314 313 312 310 309 308 306 306 305 305 305 303 300 298 296 294 293 292 292 292 292 292 292 292 292 292 292 292 292 293 294 295 295 294 294 294 294 293 293 293 293 293 293 293 294 294 294 294 294 294 294
300 302 302 303 303 303 306 311 314 315 315 314 312 311 310 309 308 307 306 306 305 304 303 300 298 296 294 293 292 293 293 293 293 293 292 292 292 291 291 292 293 294 295 295 295 294 294 293 293 292 292 292 292 292 292 293 292 292 292 292 292 292 293
302 302 303 304 303 304 308 313 314 314 314 313 311 310 308 307 306 305 305 305 304 302 299 297 296 295 294 293 293 293 293 293 293 293 292 292 291 290 291 292 293 294 294 295 294 294 293 293 292 292 291 291 291 291 292 292 291 291 291 291 291 291 291
303 303 304 304 304 306 310 313 314 313 312 311 309 308 307 306 305 305 304 302 300 299 297 296 295 294 293 293 293 293 293 293 293 293 292 291 290 290 291 293 293 294 294 294 294 293 293 293 292 292 291 291 292 292 291 291 290 290 290 290 291 291 291
304 305 305 304 305 308 312 313 312 311 310 309 308 307 306 304 303 302 300 298 297 296 295 295 294 293 293 294 293 293 293 293 292 292 290 290 290 291 293 293 293 293 293 293 293 293 292 292 292 292 292 292 292 292 291 291 290 290 289 289 290 290 291
305 306 306 305 306 309 312 312 310 309 308 308 306 305 304 302 299 298 297 296 295 295 294 294 294 293 294 293 293 293 292 292 291 290 290 290 292 293 293 293 293 293 293 292 292 292 292 292 292 292 292 291 291 291 291 291 290 290 290 290 290 290 291
306 307 306 306 308 310 311 310 308 307 306 305 304 303 301 299 297 296 296 295 294 294 293 293 294 293 293 292 292 291 290 290 290 291 291 292 293 293 293 293 293 293 292 292 292 292 292 292 292 292 291 291 291 291 291 291 292 292 292 292 292 292 292

ECMWFFLT1_850_thetae_021.txt.gz
Theta_e
320 319 318 318 318 316 313 315 315 314 315 315 315 315 315 317 318 319 319 319 319 319 319 320 320 321 321 321 322 323 324 325 326 326 326 326 326 327 326 325 326 326 326 326 326 325 326 325 325 326 325 323 323 323 325 327 327 325 326 327 328 329 330
320 318 318 318 316 314 313 315 319 318 316 314 313 314 315 315 315 316 316 317 318 317 318 318 316 316 316 316 317 318 318 318 320 322 324 324 323 325 325 324 324 325 325 325 325 324 325 326 325 326 325 324 324 323 323 326 326 327 327 327 328 329 329
320 317 318 319 317 315 314 314 318 318 316 313 310 310 312 311 309 310 310 310 312 312 312 312 310 308 307 307 308 308 307 307 308 312 316 318 318 318 321 322 322 323 323 323 323 323 323 324 324 324 324 324 324 324 323 323 322 323 325 325 326 326 327
319 318 319 319 318 318 317 316 318 319 319 314 310 308 309 308 307 307 307 306 306 307 308 310 309 307 305 305 305 305 305 305 304 305 307 308 308 309 313 318 319 319 320 321 321 322 321 322 321 321 322 320 320 321 322 322 322 323 324 323 322 323 325
317 317 320 319 319 320 318 318 319 319 319 316 311 309 307 307 307 306 306 306 305 305 306 307 307 307 306 306 306 306 306 306 306 306 305 305 308 309 307 309 312 314 316 316 315 314 315 318 319 319 318 317 317 319 319 321 321 321 320 319 319 320 323
315 314 319 319 319 320 319 319 319 319 320 318 314 311 308 307 307 307 306 306 305 305 305 305 306 306 306 307 306 306 306 306 306 306 306 305 308 309 308 309 312 313 313 310 306 307 309 313 316 317 317 316 317 317 316 317 317 316 316 317 318 320 321
315 313 318 319 318 319 320 319 318 319 319 319 317 313 309 308 308 308 307 307 306 306 305 305 306 305 307 309 307 306 306 306 306 306 306 305 305 305 307 309 311 310 310 307 305 308 311 312 315 317 316 315 315 315 315 315 316 316 317 318 319 320 321
318 315 316 319 318 318 320 320 318 318 319 319 318 315 310 309 309 308 307 307 307 306 306 305 306 305 306 308 307 306 306 305 306 305 305 305 305 304 305 306 310 310 308 307 308 309 311 311 311 312 313 315 315 315 315 315 314 315 316 316 317 318 319
321 319 317 318 319 317 319 320 318 318 319 319 320 316 311 309 309 309 308 308 307 307 307 306 306 306 305 306 306 306 306 305 305 306 305 305 304 304 304 304 310 311 305 304 308 307 306 306 305 305 309 313 315 315 314 314 314 315 315 316 317 318 319
323 322 319 319 320 318 318 319 319 318 318 319 320 316 312 311 310 309 309 309 308 308 308 307 306 306 306 306 306 305 306 305 306 305 305 305 304 304 304 303 307 309 304 302 305 304 302 303 302 303 304 307 311 314 315 315 315 315 315 315 315 316 316
322 323 321 321 321 320 319 318 318 318 318 319 320 316 312 312 312 310 310 309 308 308 308 308 307 306 306 307 306 305 305 305 305 305 305 305 305 304 304 303 305 307 304 302 303 303 303 303 302 304 304 304 306 309 312 314 314 314 314 314 315 315 316
319 321 322 322 323 322 320 319 318 319 318 319 320 317 312 312 312 312 311 310 310 309 308 308 308 307 308 308 307 306 306 305 305 305 305 305 305 305 305 304 304 305 303 303 304 304 303 303 303 305 307 309 309 308 308 311 312 312 313 314 314 313 313
318 320 321 322 323 323 321 320 318 319 318 318 319 317 313 313 313 312 312 312 311 310 309 309 308 307 308 308 308 309 308 305 306 306 305 304 305 305 305 304 304 304 303 304 305 305 304 304 304 303 305 309 311 310 310 311 312 311 311 312 312 311 311
321 321 321 322 323 323 322 321 319 319 319 319 319 317 314 313 313 313 313 313 313 312 311 310 309 308 309 309 309 310 308 305 308 309 306 304 305 304 304 305 305 305 304 303 304 305 307 308 307 306 307 309 310 311 311 311 312 312 311 311 312 312 312
323 321 321 322 323 323 323 321 320 320 320 319 319 319 317 316 315 315 315 315 314 314 313 312 311 310 310 310 309 309 307 306 309 310 306 305 306 305 304 304 306 305 304 303 302 303 306 308 307 307 308 309 309 309 309 310 310 310 311 310 310 310 310
322 321 321 322 322 323 323 322 320 320 321 320 320 320 319 318 318 317 316 316 316 315 314 314 313 311 311 310 309 308 307 306 307 307 305 305 308 308 305 304 305 304 303 303 302 302 304 305 305 307 308 308 308 308 309 309 309 309 309 309 308 309 309
320 320 320 321 320 321 322 322 322 320 321 321 320 320 320 319 319 319 318 318 317 316 316 315 314 313 312 311 310 309 308 307 307 306 305 306 307 306 305 304 305 305 304 303 302 303 305 306 306 307 307 306 307 307 308 309 309 309 310 310 309 309 309
320 319 319 319 319 319 319 321 321 319 319 321 320 319 320 320 319 320 320 319 318 318 317 316 315 314 313 313 311 310 309 308 307 307 306 306 305 305 304 304 304 304 303 302 301 302 304 304 302 302 303 304 306 306 306 306 306 307 308 308 309 308 308
321 319 318 317 318 317 316 318 321 319 317 320 319 317 319 320 320 320 320 320 320 319 318 317 316 315 314 313 312 311 310 309 308 307 307 306 305 305 304 304 303 303 303 302 301 301 301 300 299 299 300 301 301 302 303 303 304 305 306 306 307 307 307
319 318 317 317 317 317 318 320 321 320 317 318 318 316 317 319 320 320 320 320 320 319 319 318 317 315 314 314 313 312 311 310 309 308 307 306 305 305 305 303 303 303 303 302 301 300 299 298 297 297 297 297 298 299 301 302 304 306 306 306 307 307 307
314 315 316 317 318 319 321 322 322 321 320 319 319 319 319 319 320 320 320 320 320 319 319 318 317 316 315 314 313 312 312 311 309 308 307 306 305 305 305 304 303 303 303 302 301 299 298 298 297 296 295 295 296 297 297 299 301 304 306 306 307 306 307
308 309 311 314 317 318 319 321 321 322 322 322 321 321 320 320 321 321 321 321 320 319 319 318 317 316 315 314 314 313 313 311 310 308 307 306 305 305 304 304 303 303 303 302 300 299 298 297 296 295 295 294 294 295 296 297 299 302 304 305 306 306 306
308 309 310 312 314 315 316 318 319 320 321 321 321 321 321 321 321 321 321 321 320 320 319 318 317 315 315 314 314 313 313 311 310 308 307 306 305 304 304 303 303 302 302 302 300 300 299 297 295 295 294 294 294 294 295 296 297 299 301 302 304 304 305
309 309 310 311 311 312 314 315 317 318 319 319 320 320 320 321 321 321 321 320 320 319 318 317 317 315 315 314 314 313 312 311 310 308 306 305 304 304 303 303 302 302 301 300 300 299 299 297 296 295 295 295 295 295 295 295 295 296 297 298 300 301 303
308 308 309 310 311 312 313 313 315 316 318 318 318 318 317 318 319 320 320 320 319 319 318 317 316 315 314 314 313 312 311 310 309 307 306 305 304 303 303 302 301 301 299 298 298 296 296 296 296 296 296 295 295 294 295 295 295 295 295 296 297 298 300
307 308 308 309 310 311 312 313 313 315 316 317 317 317 317 316 316 318 319 319 319 318 317 316 315 315 314 314 313 312 310 308 307 306 305 304 304 303 303 302 301 299 298 297 296 295 295 296 296 296 295 295 295 295 295 296 296 296 296 296 296 297 297
307 307 308 308 308 309 310 311 312 313 315 316 316 315 315 314 315 316 317 318 319 318 317 316 315 314 314 313 312 312 309 307 306 305 304 304 304 303 303 301 299 298 297 296 295 296 296 296 295 295 294 295 296 296 297 297 297 297 297 297 297 297 297
307 307 307 308 308 309 309 310 311 312 312 314 315 316 315 315 315 315 315 316 317 317 316 316 315 314 313 313 312 311 308 306 305 305 304 303 303 302 301 300 299 297 296 296 296 296 295 294 294 294 294 295 296 296 297 297 298 298 298 298 298 299 299
308 307 307 308 308 309 309 310 311 312 312 312 314 315 315 315 315 315 315 316 316 316 316 316 315 314 313 312 311 309 307 306 305 304 303 303 302 301 300 299 298 298 297 297 297 296 294 294 294 294 295 295 296 296 296 297 297 297 298 298 298 298 298
308 307 307 307 308 308 309 310 311 312 312 312 313 314 314 315 315 315 316 316 316 316 315 315 315 314 312 310 309 307 306 305 305 303 302 302 301 300 300 299 298 298 297 297 297 295 294 294 295 295 295 296 295 295 296 296 297 297 297 297 297 297 297
307 307 307 307 307 308 309 309 310 311 312 313 313 313 314 314 314 314 315 316 315 314 314 314 313 312 310 308 307 306 304 304 303 302 301 301 301 300 300 299 298 297 297 297 296 295 295 295 295 295 295 295 295 295 295 295 296 296 297 297 297 297 297
307 307 307 307 307 307 308 309 309 311 312 313 312 313 313 313 313 313 314 314 314 313 314 314 311 308 307 306 305 304 303 301 301 300 300 300 300 300 300 299 298 297 296 296 296 296 296 296 296 295 295 294 294 294 294 295 295 295 296 296 297 297 297
307 307 307 307 307 307 308 309 310 311 312 312 311 312 312 312 313 313 312 313 313 313 313 311 309 306 306 305 304 303 302 300 299 299 299 299 299 299 298 298 297 297 297 297 296 296 296 296 295 294 294 294 294 294 293 294 294 295 295 295 295 295 296
307 307 306 306 307 307 308 309 310 311 311 311 311 311 311 312 312 311 311 312 312 312 311 309 308 306 304 303 302 302 301 299 297 296 296 297 296 296 296 297 297 297 297 297 296 296 296 295 294 294 294 294 294 293 293 293 293 293 292 292 293 293 293
307 307 306 304 304 306 308 310 311 311 311 310 310 311 311 311 311 311 311 311 310 309 307 306 306 304 302 301 302 301 298 295 294 294 293 293 293 294 295 296 297 297 297 296 296 295 294 293 293 293 293 293 293 293 293 292 292 291 291 291 291 291 292
307 307 307 306 306 307 309 310 310 310 310 310 310 309 309 310 310 310 309 308 307 306 305 303 302 301 300 300 299 296 294 294 293 293 292 292 293 294 295 296 297 297 296 295 295 294 293 293 293 293 293 293 293 293 292 292 291 291 290 290 290 290 291
306 307 308 308 308 308 309 309 309 309 309 309 308 308 308 309 309 309 307 306 305 304 303 301 300 299 298 296 295 294 293 293 292 292 292 293 293 294 294 295 295 295 295 295 294 294 294 294 294 293 293 293 292 292 291 291 290 290 290 290 290 291 291

ECMWFFLT1_850_thetae_024.txt.gz
Theta_e
321 319 316 316 314 309 309 314 315 314 316 315 313 317 317 313 314 317 319 320 319 319 320 320 320 321 321 322 323 323 324 325 325 326 326 326 327 327 327 326 326 326 325 324 324 325 324 323 323 323 324 324 324 323 323 323 322 323 324 325 325 325 325
319 315 312 311 310 308 310 317 319 314 312 312 311 313 314 310 310 313 316 318 318 318 317 314 312 312 312 312 314 317 320 323 323 323 323 323 324 325 324 324 325 325 324 324 324 325 324 324 324 323 323 324 323 323 323 323 321 321 322 324 325 327 327
317 313 313 311 309 309 309 312 315 313 310 310 309 310 309 307 307 308 309 312 314 314 314 311 307 304 304 305 305 307 310 313 317 322 322 319 319 321 322 322 323 323 323 323 324 324 323 322 322 323 323 323 322 322 320 321 321 319 319 320 320 321 322
315 313 314 311 308 310 309 311 314 315 314 310 308 309 308 307 307 306 306 307 308 310 312 312 310 307 306 306 305 305 305 305 308 314 314 310 311 316 319 321 321 321 322 322 322 323 322 321 321 320 320 319 318 318 318 319 319 317 315 314 313 313 315
316 313 313 310 310 311 311 314 316 315 313 310 308 309 308 308 307 307 306 306 306 307 308 310 311 310 309 307 306 306 306 306 306 306 306 307 309 310 312 315 316 316 317 316 316 317 318 317 316 315 316 317 316 317 318 318 317 316 314 314 313 313 316
316 315 314 310 311 313 313 316 317 315 314 311 309 309 309 308 308 307 307 306 306 306 306 307 307 309 310 308 306 306 306 306 306 306 305 307 308 308 309 312 312 311 309 308 306 308 309 308 309 313 316 316 316 315 315 314 314 315 316 317 317 317 318
316 316 317 313 313 316 317 317 318 319 318 314 311 309 309 309 308 308 308 307 307 306 306 306 305 307 311 309 306 306 307 306 306 306 306 305 305 306 308 310 311 309 307 306 306 309 310 306 307 312 312 311 312 313 314 315 314 315 316 316 318 319 320
314 315 320 318 315 318 320 318 318 320 319 317 314 310 309 309 309 309 308 308 308 307 307 307 306 306 308 308 306 306 307 306 306 306 306 306 305 305 305 308 312 311 306 306 307 309 309 306 305 306 306 308 312 314 315 315 314 314 315 316 316 317 319
314 313 318 321 318 319 321 319 318 320 320 319 316 312 310 310 309 309 309 309 308 308 308 307 307 306 306 306 306 306 306 306 306 306 306 306 305 305 304 305 309 308 304 304 306 305 305 304 303 303 305 309 311 312 314 315 314 315 315 315 316 316 316
317 314 315 320 319 318 321 320 318 319 320 320 318 314 311 311 310 310 310 309 309 309 308 308 308 307 307 307 306 306 306 306 306 305 306 306 305 305 304 304 305 305 303 303 304 303 303 303 303 303 304 306 307 308 312 313 312 313 313 313 315 316 315
321 319 317 319 320 319 320 321 320 319 319 320 319 315 313 312 311 311 310 310 309 309 309 308 308 308 307 307 307 307 307 306 306 305 305 305 305 305 304 304 304 304 304 304 304 303 304 303 303 303 304 307 308 308 308 307 306 307 309 310 313 315 315
323 323 321 319 320 320 320 320 320 319 318 320 320 317 314 312 311 311 312 310 309 310 309 309 309 309 308 308 308 307 307 306 306 306 305 305 305 305 305 304 304 304 304 304 305 305 304 304 304 304 305 307 309 309 306 305 304 304 306 307 308 309 310
323 324 324 322 321 322 322 321 320 320 319 319 320 319 318 316 314 312 312 312 311 310 310 309 309 309 309 308 308 308 307 307 307 307 306 306 305 305 305 305 305 305 304 304 305 305 305 307 307 306 307 308 308 309 308 308 309 307 306 306 305 304 304
324 324 323 322 322 322 323 322 321 320 319 319 319 320 320 320 319 316 314 313 313 312 311 311 310 310 309 309 309 309 308 308 307 308 307 307 306 306 306 306 306 306 305 305 305 304 306 309 309 309 309 309 310 310 310 310 310 309 307 306 305 304 303
324 324 323 321 321 321 322 322 321 320 319 319 319 319 319 320 320 319 317 316 315 314 314 313 312 311 310 310 310 309 309 309 308 308 308 307 307 307 306 305 305 306 306 305 305 305 305 307 308 307 307 308 309 309 308 308 308 307 306 305 305 304 304
320 321 321 321 321 321 320 320 322 322 320 319 319 319 319 319 320 320 319 319 318 317 316 316 315 313 312 312 311 310 310 310 309 309 308 307 307 308 307 306 305 306 306 306 305 305 305 305 306 305 306 306 306 307 307 308 308 308 307 307 307 307 308
317 317 317 319 321 321 320 318 319 321 321 320 320 320 319 319 319 320 319 320 319 319 318 318 317 316 315 314 313 312 311 310 310 309 309 308 308 308 308 307 306 306 306 306 305 305 305 305 305 304 304 303 303 305 306 307 307 308 308 307 306 306 305
320 319 317 317 319 319 319 318 317 317 319 320 320 320 320 318 319 319 319 320 320 320 319 319 318 317 317 315 314 314 313 312 311 311 310 309 308 308 308 307 306 306 306 305 305 305 305 305 304 303 303 302 301 301 302 303 303 303 303 303 302 302 302
323 322 321 319 319 319 318 318 317 316 317 318 318 318 318 317 318 318 319 320 320 320 320 320 319 318 317 316 315 314 314 313 312 312 311 309 309 308 308 307 306 306 306 305 305 305 304 304 304 304 304 303 302 300 300 299 299 298 299 299 300 301 302
323 323 323 322 321 320 319 318 316 315 315 315 316 315 316 318 317 317 317 319 320 320 320 320 319 319 318 317 316 315 315 314 313 312 312 311 310 309 308 307 307 306 306 305 305 304 304 304 304 304 303 303 302 300 299 297 296 296 297 297 299 301 303
315 315 317 319 319 319 319 318 318 317 317 317 317 317 317 319 319 317 317 319 319 320 320 319 319 319 319 318 317 316 315 314 314 313 312 312 311 310 309 308 307 307 306 306 305 304 304 303 303 303 303 302 301 300 298 297 296 296 296 296 297 300 302
311 312 313 316 317 318 318 318 319 320 320 320 320 320 320 319 319 319 318 318 319 319 319 319 319 318 318 318 317 316 315 314 314 313 312 312 311 310 309 308 307 307 307 307 306 304 303 303 303 302 302 302 301 299 298 296 296 295 295 296 296 297 299
311 312 313 313 314 315 316 317 317 318 319 319 319 319 320 320 320 320 318 318 319 319 319 319 319 317 317 318 318 317 316 315 314 313 312 312 311 310 309 307 307 307 307 307 306 305 304 303 302 302 302 301 300 298 297 296 296 296 295 295 295 296 296
309 310 311 312 312 312 313 314 315 317 318 318 318 318 318 319 321 321 320 320 320 320 320 320 319 317 317 318 318 317 316 315 314 313 312 312 311 310 309 307 306 306 306 306 305 304 303 302 302 302 302 301 300 299 297 296 296 296 296 296 296 296 296
308 308 309 310 310 311 312 312 313 314 314 316 317 318 318 319 320 320 319 320 321 321 320 320 319 318 318 318 318 317 316 315 314 313 312 311 310 309 308 307 306 305 305 305 304 303 302 301 301 301 301 300 298 297 296 296 296 296 296 296 296 296 296
307 308 309 309 309 309 310 310 311 312 313 314 315 317 318 318 318 318 316 317 319 319 318 320 320 319 318 318 318 317 315 314 314 313 311 310 309 308 307 306 305 305 304 303 302 301 300 300 300 300 299 297 296 295 295 295 295 296 296 296 296 297 297
308 307 307 307 307 308 308 308 309 310 311 312 313 314 316 316 316 317 316 316 317 318 318 319 320 319 319 318 318 316 314 313 313 312 310 309 308 307 307 306 305 304 303 302 301 300 299 300 299 299 297 296 295 295 295 295 295 296 296 296 297 297 297
308 308 307 306 306 306 307 308 309 309 310 311 311 312 314 315 315 316 316 315 316 317 318 318 318 319 319 318 317 316 314 313 312 311 309 308 308 307 307 306 305 303 303 302 300 299 299 299 299 297 296 295 295 295 295 295 296 296 296 296 297 297 297
308 308 308 307 307 307 307 307 308 309 310 311 311 311 312 313 314 315 315 315 315 317 317 317 317 318 318 318 316 314 314 314 312 309 308 308 307 307 306 304 304 303 303 302 301 300 299 298 297 296 296 295 295 295 295 296 296 296 296 296 296 296 297
308 308 308 308 307 307 307 307 307 308 308 310 311 312 312 312 313 313 314 315 316 316 317 317 317 317 317 317 315 314 314 314 312 309 308 307 306 305 304 303 303 303 302 301 300 299 298 297 296 296 296 296 296 296 296 296 296 296 295 295 296 296 296
308 308 307 307 307 306 305 305 305 306 307 308 309 311 312 312 313 313 314 314 315 315 315 316 317 317 317 316 315 314 314 313 311 309 307 306 305 304 303 302 302 302 301 300 299 298 297 297 297 296 296 296 296 296 296 296 295 295 295 295 295 295 295
307 307 307 307 307 306 306 305 304 304 306 307 309 310 311 312 312 313 313 314 314 312 313 315 316 316 316 315 315 314 314 312 310 308 306 304 303 302 302 302 301 301 300 299 298 297 297 297 297 296 296 296 296 296 296 295 295 295 294 294 294 294 295
306 307 307 308 308 308 307 306 305 305 306 308 309 310 311 311 312 312 312 313 313 312 312 314 315 315 314 314 313 313 311 309 306 304 302 302 301 301 301 301 300 299 298 297 297 297 297 297 297 296 296 296 296 296 295 295 294 294 294 294 294 294 294
306 306 307 307 308 307 307 306 306 306 307 308 309 310 311 311 311 311 311 312 312 312 313 313 313 314 313 312 312 311 309 306 304 302 302 301 301 301 299 298 297 296 297 297 297 297 297 297 296 296 296 296 295 294 294 294 294 294 294 294 294 294 294
305 306 306 306 307 306 306 306 306 307 308 309 310 311 311 311 311 311 311 311 311 312 312 312 312 312 311 310 309 308 306 304 303 302 301 300 298 297 295 294 295 296 296 296 296 296 296 297 296 295 295 294 294 294 294 294 294 294 294 293 293 293 292
305 305 305 305 306 306 307 307 308 308 309 310 310 311 311 311 311 311 311 311 311 311 310 310 310 310 309 308 306 306 304 303 302 301 298 296 295 294 293 294 295 296 296 296 296 296 296 296 295 294 294 294 294 293 293 293 293 293 292 292 292 291 291
304 304 305 305 306 307 308 308 309 309 309 310 310 311 311 310 310 310 310 310 310 310 309 309 309 307 306 305 304 304 303 301 299 297 295 294 293 293 293 293 294 294 294 294 295 295 295 294 294 294 294 294 293 293 293 292 292 292 292 291 291 291 291

ECMWFFLT1_850_thetae_027.txt.gz
Theta_e
309 310 311 309 308 308 308 308 308 307 308 307 307 308 312 318 320 319 319 319 320 320 321 322 322 322 323 323 323 323 325 326 326 326 326 327 327 327 327 327 326 326 325 325 324 323 324 323 324 324 323 324 323 323 323 322 322 323 324 325 325 325 324
311 309 309 308 307 308 307 308 308 308 308 307 307 306 307 312 317 319 319 319 319 319 319 320 320 320 320 321 321 321 323 324 324 324 325 325 326 326 325 325 325 325 325 324 324 324 324 323 323 323 323 323 322 321 322 321 321 320 320 321 322 323 324
311 309 309 308 308 308 308 309 308 308 308 308 307 307 306 307 310 315 317 316 313 311 310 311 311 310 310 314 317 319 322 322 322 322 322 322 323 322 322 323 324 324 324 325 324 324 323 323 323 322 321 319 317 318 320 322 321 318 316 316 318 319 321
310 309 309 309 308 308 308 309 308 308 309 308 307 307 307 306 306 308 310 309 307 306 305 306 306 304 305 307 308 310 315 317 319 320 317 317 321 321 320 321 322 322 323 323 324 323 322 322 321 321 320 318 316 316 318 320 318 315 315 316 315 314 316
310 308 309 309 309 309 308 308 309 309 308 308 308 308 307 307 306 306 306 306 306 306 306 306 306 306 306 306 305 305 307 310 314 314 310 310 316 320 320 320 321 321 321 322 322 322 321 321 321 320 320 318 314 314 317 317 315 314 315 316 316 315 314
310 309 309 310 309 309 309 309 309 310 309 308 308 308 308 307 307 307 306 306 306 306 306 306 306 307 306 306 307 306 306 307 308 308 306 305 309 313 315 316 317 316 317 317 316 315 315 316 316 314 313 312 311 311 315 316 314 314 315 315 317 318 316
311 310 310 309 309 309 309 310 310 310 310 309 309 308 309 308 307 308 307 306 306 306 306 307 307 307 307 307 307 307 306 306 306 306 306 306 306 307 308 309 309 308 309 309 308 307 307 307 307 307 307 309 310 310 312 314 314 314 316 317 319 320 321
312 312 311 310 309 310 310 311 312 312 311 311 310 309 309 309 308 308 308 307 307 306 306 307 307 307 306 307 306 306 306 306 307 306 306 306 306 306 306 306 306 305 305 304 304 305 304 304 304 304 305 307 309 310 312 314 314 314 315 316 319 321 322
314 314 315 312 311 313 313 313 314 315 314 312 312 310 309 309 309 308 308 308 308 308 307 306 307 307 306 306 306 306 306 306 306 306 306 306 306 305 305 305 305 304 304 304 304 303 303 303 303 303 303 303 305 307 309 312 313 314 314 314 316 318 319
315 316 318 315 314 317 318 316 316 317 315 314 314 313 311 310 309 310 309 309 308 308 308 307 307 307 307 306 307 306 306 306 305 306 305 305 305 305 305 304 304 304 304 304 304 304 303 303 303 303 303 303 304 304 304 305 307 310 311 311 313 315 316
316 317 320 319 317 319 320 319 318 317 315 314 313 313 312 312 311 311 310 310 310 309 309 308 308 308 307 307 307 306 306 306 305 306 305 305 305 305 304 304 304 304 304 304 304 303 303 303 303 303 303 304 304 304 304 303 304 305 306 306 308 311 313
317 316 319 320 319 319 320 320 319 317 315 315 313 312 313 314 314 313 312 311 311 311 310 309 309 308 308 308 308 307 307 306 306 306 305 305 305 305 305 304 304 304 304 304 304 304 304 303 304 304 304 304 305 304 304 304 304 304 304 304 305 306 307
320 317 318 319 320 319 319 319 319 319 318 317 316 315 314 315 315 316 316 314 313 313 312 312 311 310 309 309 309 308 308 307 307 307 306 306 306 306 305 305 305 305 305 305 305 306 305 305 305 306 306 306 306 306 306 305 305 304 304 304 304 304 304
322 320 319 320 320 320 320 320 319 319 319 319 318 317 317 316 317 317 317 317 316 315 315 314 313 312 311 310 309 309 309 308 308 308 307 307 307 307 306 306 306 306 306 306 306 306 306 306 306 307 307 307 307 308 307 306 305 305 305 304 304 303 303
323 322 322 321 322 321 321 321 320 319 319 318 318 318 318 318 317 317 317 317 318 318 318 317 316 315 314 313 311 310 310 309 309 309 308 308 308 307 307 307 307 306 306 306 306 306 306 306 306 306 306 306 306 307 307 306 306 306 306 305 305 304 303
324 323 322 322 322 321 321 320 319 319 318 317 317 317 317 317 317 318 318 318 318 319 319 318 318 317 317 316 315 313 312 311 311 310 309 309 309 308 307 308 308 307 307 306 306 306 306 306 306 305 305 304 304 305 304 304 305 305 305 306 305 303 301
324 324 322 321 320 319 318 318 318 318 318 317 316 316 316 316 316 317 318 319 319 319 319 319 319 319 318 318 317 316 315 314 313 312 311 310 310 309 308 308 308 307 307 307 306 306 306 306 305 305 304 304 303 303 303 303 304 304 304 305 305 303 301
323 323 322 322 321 319 317 317 317 318 318 318 317 317 317 317 317 318 318 319 319 319 319 320 320 319 319 319 319 318 317 317 315 314 313 312 311 310 309 309 308 308 307 307 306 306 306 305 305 304 304 304 303 303 303 302 302 302 301 302 303 303 302
321 321 321 322 321 319 319 319 319 319 318 318 317 317 317 317 318 319 319 319 319 319 320 319 319 320 320 319 319 319 318 318 317 316 315 313 312 311 310 310 309 308 307 307 306 306 306 305 304 304 304 304 304 304 304 302 301 301 300 300 300 301 301
321 321 321 321 320 320 320 320 319 319 318 318 317 316 315 316 318 318 318 317 318 319 320 320 320 319 319 319 318 319 318 318 317 317 316 315 313 312 311 311 310 309 308 307 307 307 306 305 304 304 304 304 304 304 304 303 303 301 300 300 299 299 299
321 322 322 321 320 320 320 319 319 319 318 318 317 316 316 315 316 316 315 315 316 318 319 319 319 320 319 318 318 318 318 318 317 317 316 315 314 313 312 311 311 310 310 309 308 308 307 306 305 304 304 304 303 303 303 303 303 302 300 300 299 298 298
315 316 317 317 317 318 318 318 318 318 318 318 317 317 318 317 317 317 317 317 317 318 318 318 318 318 319 319 318 318 318 318 317 316 316 316 314 313 313 312 312 312 311 309 308 308 308 307 306 304 303 303 303 302 303 303 302 301 300 299 299 298 298
310 310 311 312 313 315 314 315 316 316 315 315 314 315 316 317 318 319 319 319 319 319 319 318 318 318 318 319 319 319 319 318 317 317 316 316 314 314 314 313 313 312 311 310 309 308 308 307 305 304 303 302 302 302 302 302 300 299 299 298 298 298 298
310 310 311 312 312 312 312 313 314 315 315 315 315 315 316 316 317 317 317 318 319 320 320 320 319 318 318 318 319 319 319 319 318 317 316 315 315 315 314 314 313 312 311 310 309 308 307 307 305 304 303 302 302 302 301 300 300 299 298 297 297 297 297
308 309 310 311 310 311 312 313 313 313 314 313 314 315 316 317 317 317 316 315 315 316 317 318 319 320 320 320 319 320 319 318 318 317 317 316 315 315 314 313 312 312 311 310 309 308 307 305 304 303 302 302 302 301 300 299 298 297 296 296 296 296 296
307 308 308 308 308 309 310 310 310 310 311 311 311 313 315 316 317 318 317 316 314 312 311 313 316 318 319 320 320 320 319 318 318 318 317 316 315 314 314 313 312 311 311 310 308 307 306 304 303 302 302 302 301 300 299 298 297 296 296 296 296 296 296
305 306 307 307 307 306 307 307 307 308 309 310 309 309 310 313 314 315 316 316 315 314 312 312 312 313 313 316 319 320 319 318 318 318 316 315 314 314 313 312 311 311 310 308 307 306 304 303 302 301 301 301 300 299 298 297 297 296 296 295 296 296 296
306 305 305 305 304 304 304 304 305 306 307 307 307 306 307 309 311 313 314 314 315 315 313 311 311 311 311 314 318 319 319 318 317 316 315 314 314 314 313 312 311 310 308 307 305 304 302 301 301 301 301 300 299 298 297 297 297 296 296 296 296 296 296
307 307 305 304 303 303 303 303 303 304 304 304 304 305 306 308 309 310 312 312 313 314 314 312 311 311 312 315 317 318 318 317 315 314 314 313 313 313 312 311 310 308 307 305 304 303 302 301 301 301 301 300 299 298 297 297 296 296 296 296 296 296 296
308 308 306 305 304 303 303 303 303 303 302 301 301 301 303 307 309 310 311 311 312 312 313 313 313 313 314 315 316 317 318 317 315 313 312 312 312 311 310 310 309 307 306 305 304 304 303 302 301 300 299 298 298 297 297 296 296 296 296 296 296 296 295
307 307 307 306 306 305 304 303 303 303 302 301 300 300 302 305 309 310 311 311 311 312 313 314 314 314 314 315 316 317 317 316 314 311 311 311 310 309 309 309 308 307 306 305 305 304 303 302 300 299 298 297 297 297 297 296 296 296 296 296 296 295 295
306 307 307 306 306 305 304 303 303 304 303 301 300 301 303 305 308 309 310 311 311 312 313 313 313 314 313 314 316 315 315 314 313 311 310 310 308 308 308 308 307 306 305 304 303 302 301 300 299 297 297 297 297 297 296 296 296 296 295 295 295 295 295
306 305 305 305 305 305 305 305 305 305 304 302 302 304 305 306 308 309 310 311 311 312 312 313 313 313 312 313 315 314 313 313 312 311 310 310 308 308 308 307 306 305 303 302 302 301 300 298 297 297 297 297 297 296 296 295 295 295 294 294 294 294 294
305 305 305 305 306 306 306 306 306 306 304 303 303 305 307 307 308 309 310 311 311 311 312 312 312 312 312 312 313 314 313 312 311 310 310 310 309 308 306 305 304 303 303 302 301 299 297 296 296 297 296 296 296 295 295 294 294 294 294 294 294 294 293
306 305 305 305 305 306 306 307 306 306 305 303 304 306 308 308 309 309 309 310 310 311 311 311 311 312 311 311 311 312 312 311 311 310 309 308 307 306 304 303 302 302 302 300 297 295 295 296 296 296 295 295 294 294 294 294 294 294 293 293 293 292 292
305 305 305 305 305 305 305 306 305 305 305 305 306 308 308 309 310 310 311 311 311 311 311 311 311 311 310 310 309 310 310 310 309 308 307 305 303 302 302 303 302 301 298 296 294 294 295 295 295 294 294 294 294 294 294 293 293 293 292 292 292 292 292
304 304 305 304 304 304 304 304 304 305 306 307 308 309 309 310 310 310 311 311 311 311 310 310 310 310 309 308 307 307 308 308 307 306 304 303 302 303 303 302 300 297 295 294 294 294 294 294 294 294 294 294 294 293 293 292 292 292 292 292 291 291 291

ECMWFFLT1_850_thetae_030.txt.gz
Theta_e
311 308 308 307 307 307 307 307 307 308 310 310 313 319 320 320 320 320 319 320 321 321 321 321 322 323 323 323 323 324 326 326 326 326 326 327 327 327 327 326 326 325 327 327 326 324 324 323 323 323 323 323 323 323 322 322 322 323 323 324 325 325 326
310 308 307 307 307 307 307 307 307 306 306 307 311 317 319 319 319 319 319 320 321 321 321 321 321 321 321 319 319 320 324 325 325 326 326 326 327 327 326 326 326 326 326 325 324 323 323 323 323 323 323 323 323 322 322 321 321 321 321 321 321 323 323
311 308 307 307 307 307 307 307 307 307 307 306 307 313 318 319 318 317 317 318 319 319 319 320 319 319 317 314 314 317 321 324 325 325 325 325 325 325 326 326 326 325 325 324 324 323 323 323 323 322 322 321 320 320 321 321 321 321 320 320 320 320 321
310 308 308 307 307 307 308 307 307 307 307 306 306 308 312 315 314 312 311 312 311 311 312 312 312 311 308 307 308 311 316 320 321 321 320 321 323 323 323 323 324 325 325 324 323 324 323 323 322 320 319 317 316 318 319 318 318 318 317 317 319 321 322
309 308 308 307 307 308 308 308 308 307 307 307 306 306 307 308 308 307 306 306 306 306 306 306 306 306 305 305 305 306 309 311 312 312 310 313 318 320 321 321 322 323 323 323 323 323 323 322 322 320 320 319 316 316 316 315 315 315 315 315 317 320 321
310 309 308 308 307 308 308 307 307 308 307 307 307 307 306 306 306 306 306 306 306 306 306 306 307 306 306 306 306 306 307 306 307 307 306 307 310 314 317 318 320 320 320 322 322 320 319 318 319 319 318 317 315 313 315 315 316 317 317 317 318 320 320
314 310 308 309 308 308 308 308 307 307 307 307 307 307 307 307 306 306 306 306 306 306 306 307 306 306 306 307 306 306 306 306 306 306 306 306 306 308 309 311 312 312 313 314 314 311 309 308 309 310 310 310 309 310 314 316 317 318 319 320 321 322 323
318 313 308 308 309 308 308 308 308 308 307 307 307 307 307 307 306 307 307 307 307 307 307 307 307 306 306 306 306 306 306 306 306 306 306 306 306 306 306 306 306 306 306 307 306 305 305 305 305 305 305 306 307 310 314 314 315 318 318 319 321 321 323
320 315 310 310 309 309 310 309 309 309 308 308 308 307 307 307 307 307 307 307 307 307 307 307 306 307 306 306 306 306 306 306 305 306 305 305 305 305 305 305 304 304 304 304 304 304 304 304 304 304 304 304 305 308 312 312 312 315 316 317 319 320 320
320 317 313 311 311 311 311 312 312 312 310 309 309 309 309 308 308 307 308 307 307 307 307 307 307 306 306 306 306 305 305 305 305 305 305 305 305 304 304 304 304 304 304 304 303 303 303 303 303 304 303 303 304 305 307 307 308 310 311 313 316 317 318
319 319 316 313 312 313 314 314 314 314 313 312 310 310 310 310 309 309 309 309 308 308 308 307 308 307 307 307 306 306 306 305 305 305 305 305 304 304 304 304 304 303 303 304 303 304 304 303 303 303 303 303 303 303 303 303 304 305 306 307 308 311 314
317 319 319 316 315 316 316 315 315 315 314 313 311 311 311 310 311 311 311 310 310 310 310 309 308 308 308 307 307 307 306 306 306 305 306 306 305 305 304 304 304 304 304 304 304 304 304 304 304 305 304 304 304 305 305 305 305 305 304 304 304 304 306
317 319 320 318 316 317 317 317 316 316 315 313 313 312 312 312 312 312 312 312 312 312 311 311 310 310 310 309 308 308 307 307 307 306 306 306 306 306 306 306 306 306 305 305 305 305 305 305 306 307 307 307 307 307 307 308 307 307 306 306 306 305 304
317 319 320 320 318 318 318 318 318 317 316 314 314 313 313 314 314 314 314 314 314 314 314 313 312 312 311 311 310 310 309 308 308 307 307 307 307 307 307 306 306 306 307 306 307 306 306 306 307 307 307 307 307 307 307 307 308 308 308 308 308 307 307
317 319 320 320 320 319 319 319 319 318 317 316 315 314 314 315 315 316 316 316 316 316 316 316 315 314 313 313 313 313 312 311 310 309 308 308 307 307 307 306 306 306 306 306 307 306 306 307 307 307 306 306 306 306 306 306 306 307 308 309 308 308 308
318 320 320 319 320 320 319 319 320 319 319 318 317 317 315 315 316 316 316 316 316 316 317 317 317 317 316 316 316 315 315 315 314 313 312 310 309 309 309 308 307 306 306 306 306 306 306 306 306 306 306 305 305 305 305 305 305 305 307 308 308 308 308
319 320 320 318 319 320 320 320 320 320 320 319 319 318 318 317 317 318 318 318 318 317 317 317 317 317 317 318 318 318 318 317 317 316 315 314 312 311 311 310 309 308 307 306 306 306 306 305 305 305 305 305 305 305 304 304 305 305 305 306 307 307 306
321 321 319 318 320 319 319 319 320 320 320 319 319 319 319 319 319 318 318 318 318 318 318 318 318 318 317 318 319 319 319 318 318 318 317 316 315 314 313 312 311 311 310 308 308 308 307 307 306 305 304 305 304 304 304 304 304 304 304 305 306 306 305
320 321 320 320 321 320 318 319 320 320 320 320 320 319 320 319 319 319 319 319 319 319 319 319 319 318 318 319 319 319 319 319 319 319 318 317 317 316 315 314 313 313 313 312 311 310 309 308 307 306 305 305 304 303 303 303 303 303 303 304 305 305 305
319 321 321 321 322 321 320 320 320 320 320 321 320 320 320 320 320 319 319 319 320 320 319 319 319 319 319 319 319 319 319 319 319 318 318 318 318 317 316 315 315 315 315 314 314 312 310 309 309 308 307 305 305 304 303 303 302 302 302 303 303 304 305
320 321 321 321 321 321 320 320 319 320 320 321 320 320 319 319 318 317 317 319 320 319 318 317 317 318 320 320 320 319 320 319 319 318 318 318 317 317 317 317 316 316 315 315 314 313 312 312 311 310 309 307 306 305 304 303 302 301 301 301 301 301 302
322 321 321 321 321 320 320 320 319 320 320 320 319 319 318 318 318 317 317 318 319 319 317 316 316 317 319 320 319 319 319 319 319 319 318 317 317 317 317 316 317 317 316 314 313 313 313 313 312 312 310 308 307 306 305 304 302 301 301 300 300 300 301
319 319 319 319 319 319 319 319 319 318 318 317 317 316 316 316 318 318 318 318 319 319 318 318 318 318 318 319 318 318 318 319 319 319 318 318 317 316 316 316 316 316 316 315 313 312 312 312 312 311 310 309 308 307 306 304 302 301 300 300 300 300 300
312 313 313 314 315 315 315 315 315 315 314 314 314 313 312 312 314 315 316 317 317 318 319 319 320 319 319 319 319 319 318 318 318 319 319 319 317 317 316 316 316 316 316 315 314 312 312 311 311 311 309 308 308 307 306 304 303 301 300 300 300 299 299
309 309 311 311 311 311 311 311 312 312 313 313 313 312 312 312 314 315 316 315 315 315 316 317 317 318 318 319 319 320 319 319 319 319 319 319 318 317 317 316 316 315 315 314 313 312 311 310 310 311 309 309 308 307 306 304 303 301 300 299 299 299 298
308 309 311 311 310 310 311 312 312 312 313 313 312 311 311 312 313 315 316 316 316 316 315 314 313 313 314 316 317 319 319 320 320 320 320 319 319 318 317 316 315 315 314 314 313 312 310 309 309 309 310 310 309 307 305 304 302 300 299 298 298 298 298
308 308 310 309 309 309 310 311 311 311 309 309 309 310 310 310 311 312 313 314 314 314 313 311 309 309 311 313 315 317 317 318 318 319 320 319 318 317 317 316 315 314 314 313 312 311 309 308 308 309 309 309 309 307 305 303 301 300 299 298 298 298 297
306 307 308 308 308 307 306 305 305 305 304 304 305 306 306 306 306 308 310 311 311 311 310 309 308 307 309 312 313 314 315 316 316 318 319 319 318 317 316 315 314 313 313 312 311 309 308 307 307 307 307 308 308 306 304 302 300 299 298 298 297 297 297
306 306 307 307 306 305 303 302 302 302 301 301 301 301 301 301 302 304 305 307 309 309 310 311 311 311 311 312 312 312 312 313 314 315 317 317 317 316 315 313 312 312 312 310 309 308 307 307 306 306 306 306 306 304 302 300 299 298 298 297 297 297 296
307 307 307 306 305 304 303 303 302 302 302 302 301 300 300 300 301 301 301 302 304 305 306 309 311 311 312 313 313 312 312 311 312 314 315 316 315 314 314 312 311 311 310 309 308 307 307 306 306 306 306 305 303 302 301 299 298 298 297 297 297 297 296
306 307 307 306 305 304 304 304 303 303 303 303 303 302 300 300 300 300 300 301 303 304 305 306 308 310 312 313 313 313 312 311 313 315 315 314 314 313 313 312 310 310 309 308 307 307 306 306 306 306 305 303 302 301 300 298 297 297 297 297 296 296 295
306 306 307 306 305 305 305 305 305 305 304 304 304 303 302 300 300 300 300 301 303 305 307 307 308 310 311 312 312 313 312 311 313 315 314 313 313 312 311 311 310 309 308 308 307 306 306 306 305 304 303 302 302 300 298 297 297 297 296 295 295 294 294
306 306 306 306 306 306 305 305 305 304 304 304 305 304 303 302 300 300 301 301 303 306 309 309 310 310 311 311 312 312 312 311 312 313 313 311 311 310 310 309 309 308 308 308 307 307 306 305 304 303 303 302 300 298 297 296 296 295 294 294 294 294 294
306 306 306 306 305 305 305 304 304 304 305 305 305 305 305 304 302 301 301 302 304 306 308 310 311 311 311 311 311 311 311 311 311 312 311 310 309 308 308 308 307 307 307 307 307 306 305 303 303 302 301 299 297 296 295 295 294 294 293 294 294 294 294
305 306 306 306 306 305 305 305 305 305 306 306 306 306 306 305 303 302 303 305 307 308 309 309 310 311 311 311 311 311 311 311 311 310 310 309 308 308 307 307 307 307 306 305 304 303 302 302 301 299 297 296 295 294 294 294 293 293 294 294 294 293 293
304 305 305 305 305 305 305 305 305 305 305 306 306 306 305 304 303 304 306 308 309 310 310 310 310 310 310 311 311 310 310 310 310 309 309 308 308 307 307 307 306 305 303 302 301 301 300 299 297 295 294 294 294 294 293 293 293 293 293 293 293 293 292
304 304 304 305 304 305 305 304 304 304 304 305 304 304 304 304 304 306 308 309 310 310 310 310 310 310 310 310 310 310 309 309 309 308 307 307 307 306 306 305 304 303 302 301 300 299 297 295 294 294 294 293 294 294 294 293 293 293 293 292 292 292 291

ECMWFFLT1_850_thetae_033.txt.gz
Theta_e
312 307 307 307 306 307 307 307 307 308 309 309 310 314 318 319 319 318 318 319 320 321 321 321 322 322 322 321 322 323 325 326 326 326 326 326 326 327 327 327 327 326 325 325 326 326 325 324 324 323 323 323 323 322 322 322 322 322 324 325 325 325 325
313 307 307 307 306 307 307 306 307 307 307 307 309 313 317 318 318 318 317 318 319 320 320 320 320 320 319 318 316 318 322 325 325 325 326 326 326 327 327 327 327 326 326 326 325 325 323 322 323 322 323 323 322 321 322 322 322 322 323 324 324 323 323
311 308 307 307 307 307 307 306 306 306 306 306 308 312 314 315 315 315 315 315 317 317 318 317 316 314 312 311 311 314 319 323 325 325 326 326 326 326 326 326 326 326 326 326 325 324 323 322 322 322 322 322 320 319 320 321 322 322 322 323 322 322 322
309 308 307 307 307 307 306 306 306 306 306 306 307 310 312 312 310 309 308 308 309 310 311 310 308 306 305 305 308 312 316 319 320 319 319 322 324 325 325 325 326 326 325 325 324 323 323 323 322 321 319 319 317 316 317 318 318 319 319 319 319 320 321
308 309 308 307 307 307 306 306 306 306 306 306 306 308 309 308 307 306 305 305 305 305 306 306 305 305 305 305 307 309 310 310 310 308 307 310 315 319 322 323 324 324 324 324 323 323 323 323 322 320 317 316 315 315 316 316 316 316 316 316 316 317 319
308 308 308 307 307 307 306 306 306 306 306 306 306 306 307 306 306 306 306 306 306 306 306 306 306 306 306 306 306 307 307 306 306 306 305 306 308 312 317 320 321 322 322 322 322 322 321 319 319 319 319 317 314 314 316 316 316 317 317 319 320 320 319
308 308 308 307 307 307 306 306 306 306 306 306 306 306 306 306 306 306 306 306 306 306 306 306 306 307 306 306 306 306 306 306 306 306 306 307 307 308 310 312 313 313 314 316 317 315 311 309 309 312 313 313 311 312 315 316 316 316 317 320 322 323 324
308 309 308 308 307 307 307 307 307 307 306 306 306 306 306 306 306 306 306 306 306 306 306 306 306 306 306 306 306 306 306 306 306 306 306 306 306 306 306 307 306 306 307 308 307 306 305 304 304 305 305 307 309 312 315 316 317 317 317 319 320 322 324
310 308 308 308 308 307 307 307 307 307 307 307 306 306 306 306 306 306 306 306 306 306 306 306 306 306 306 305 306 305 306 305 305 305 305 305 305 305 305 304 304 304 304 304 303 303 303 303 303 303 303 305 308 311 314 315 315 315 316 317 317 318 320
314 310 309 309 308 308 308 307 307 307 307 307 307 307 306 307 306 306 306 306 306 306 306 306 306 305 305 305 305 305 305 305 305 305 304 304 304 304 304 304 303 303 303 303 303 303 303 303 303 303 303 304 305 308 311 311 310 310 310 312 314 314 315
319 313 312 310 308 309 308 308 308 307 308 307 307 307 307 307 307 307 307 307 306 306 306 306 306 306 306 306 306 306 305 305 305 305 305 304 304 304 304 304 304 304 304 304 303 303 304 303 303 303 303 303 303 304 306 306 306 306 305 306 307 307 308
319 314 313 311 309 310 309 309 310 309 309 309 308 308 308 307 308 307 308 307 307 307 307 307 307 307 307 306 306 307 307 307 307 306 306 306 306 306 305 305 305 305 305 305 305 305 305 305 305 305 305 305 305 305 305 306 306 306 305 305 305 304 304
318 315 313 310 310 312 311 311 312 313 314 313 312 311 310 309 309 309 309 309 309 309 308 308 308 308 308 307 307 307 307 308 308 308 307 307 307 307 307 307 307 307 307 307 307 307 307 307 307 308 308 307 308 308 308 308 307 307 306 306 306 305 305
320 319 315 312 313 315 314 312 313 315 317 317 317 315 314 313 312 311 311 311 311 311 311 310 309 309 309 308 308 308 307 308 308 308 307 307 307 307 307 307 307 307 307 307 307 307 307 307 307 308 308 308 308 309 308 309 308 308 307 306 306 306 306
320 319 318 315 314 316 316 316 316 317 318 318 318 317 316 316 315 315 315 314 313 313 313 313 312 312 312 311 310 310 309 308 308 308 307 307 307 307 307 307 307 307 307 307 307 307 307 307 306 307 307 307 307 308 308 308 308 308 308 306 306 307 307
318 318 318 316 315 317 318 318 319 319 318 319 319 318 317 316 316 316 317 317 316 316 316 316 316 315 314 314 314 314 313 312 311 310 309 308 308 308 308 307 307 307 307 307 307 307 307 307 307 306 306 306 306 306 306 306 306 307 307 307 306 307 307
318 319 318 317 316 318 320 319 319 320 319 319 318 317 317 318 317 316 317 317 317 317 317 317 317 317 317 317 317 317 316 316 315 315 314 313 311 310 310 309 308 307 307 308 308 308 309 309 308 308 307 307 306 306 306 306 305 305 305 305 305 305 306
319 319 319 318 318 319 320 319 319 319 320 318 316 317 318 318 318 318 318 318 318 318 318 318 318 318 318 318 318 318 318 318 318 318 317 316 315 314 313 312 311 310 310 310 310 311 311 311 310 310 309 308 308 307 308 307 306 305 304 305 304 304 305
317 319 319 318 318 318 318 318 319 319 319 317 315 317 319 318 318 319 318 318 318 318 318 319 319 319 318 318 318 319 319 319 319 319 318 318 317 316 315 315 314 314 313 313 313 314 314 314 313 312 311 310 310 311 311 309 308 307 305 305 304 304 304
315 317 316 316 318 318 318 318 319 320 319 318 316 319 320 318 318 318 318 318 318 319 319 319 319 319 319 319 319 319 319 319 319 319 319 319 318 318 317 317 316 316 316 315 315 315 314 314 314 314 313 313 312 313 313 311 309 308 307 306 305 305 305
315 315 315 316 318 319 319 319 319 320 320 319 318 319 319 317 317 316 317 318 319 319 319 319 320 319 319 318 317 318 319 319 319 319 319 319 319 318 318 317 317 317 317 316 316 315 314 313 313 313 313 313 313 313 312 311 310 309 308 308 307 307 307
317 316 317 318 318 318 318 319 319 319 318 318 319 319 318 317 316 316 317 319 319 319 319 320 320 319 318 317 316 317 319 320 319 319 319 319 318 318 318 317 317 317 317 317 316 316 314 313 313 312 312 312 312 312 312 311 311 310 309 308 307 307 307
318 318 318 319 319 318 318 318 318 317 317 317 318 318 317 316 316 317 318 319 319 319 319 319 320 319 319 318 317 317 319 319 319 318 319 319 318 318 318 317 317 317 317 316 316 315 314 313 312 312 312 311 311 311 311 311 311 310 309 308 307 307 307
319 319 320 320 320 319 318 318 319 317 316 317 317 317 317 317 317 317 318 318 319 319 319 319 319 319 320 319 319 320 320 319 319 319 319 319 318 318 318 318 317 317 316 316 315 315 314 313 312 312 312 311 310 309 309 310 310 309 309 308 307 307 305
318 318 319 319 318 317 317 317 317 316 317 318 318 317 317 316 316 316 317 317 317 318 318 318 318 318 318 319 319 319 319 319 320 320 319 319 319 319 319 318 317 317 316 316 315 315 314 313 312 312 312 311 309 308 308 309 309 308 308 308 307 306 304
313 314 315 315 314 314 314 314 313 314 315 315 315 315 314 313 313 314 314 315 315 315 315 316 315 315 315 315 315 316 316 317 318 318 319 319 319 319 319 319 318 317 316 316 315 315 314 312 311 311 311 310 308 308 309 308 308 308 308 307 307 306 304
310 310 311 312 311 310 310 311 311 312 312 312 312 311 311 311 311 311 311 311 311 312 312 312 312 312 311 310 311 312 314 314 315 315 316 316 316 317 318 319 319 318 316 315 315 314 312 311 311 311 311 309 308 308 308 307 307 307 307 307 306 306 305
309 308 309 311 311 310 309 309 310 311 310 309 308 308 308 308 308 307 306 306 306 307 308 309 310 310 310 310 311 311 312 312 312 312 312 312 312 314 316 318 318 317 316 316 314 313 312 311 311 311 310 308 307 307 307 307 306 306 306 306 306 305 304
307 307 308 309 309 309 308 308 307 307 306 305 305 304 304 303 303 302 302 302 302 303 304 306 307 308 309 310 311 312 312 312 311 311 310 310 310 312 315 317 317 317 316 315 313 312 311 311 311 311 309 308 307 307 307 306 306 305 305 305 305 304 303
306 306 306 307 307 307 307 306 304 303 303 303 303 302 302 301 300 300 300 300 300 301 302 302 303 304 306 308 309 310 311 312 312 312 311 310 310 311 313 314 315 316 315 313 312 310 310 311 310 309 307 306 306 307 307 305 304 303 304 304 304 303 301
306 306 306 306 307 306 305 304 303 303 303 303 303 303 302 302 302 301 301 300 300 300 301 301 302 303 304 306 308 309 311 312 312 312 311 309 309 311 312 313 314 314 313 311 310 310 311 310 309 308 306 306 306 306 305 304 303 302 302 302 301 299 298
306 306 306 307 307 306 305 305 305 305 305 305 305 305 304 303 303 303 301 300 299 299 300 300 302 304 306 307 308 310 311 312 312 311 310 309 309 310 312 312 313 312 311 310 310 310 309 308 307 306 306 306 306 306 304 303 302 302 302 300 298 297 296
306 306 306 306 306 306 306 306 306 306 305 305 305 305 304 304 304 303 302 301 300 299 299 300 301 304 307 309 310 311 312 312 311 311 310 309 310 310 311 311 312 312 311 310 309 308 307 306 306 305 305 305 304 303 302 301 301 301 300 298 296 295 294
306 306 306 306 306 306 306 306 306 305 305 305 304 305 305 305 305 304 304 303 301 300 300 301 302 305 307 309 310 311 311 311 311 311 310 309 310 310 310 310 310 310 309 309 307 306 305 305 305 304 304 303 302 301 301 301 300 298 296 295 294 294 294
305 305 305 305 305 306 306 305 305 305 305 305 305 305 305 306 306 305 305 304 302 301 302 303 305 307 309 309 309 310 310 310 310 310 310 309 309 309 309 308 308 308 307 307 306 305 305 305 304 303 302 302 301 301 300 299 297 295 294 294 294 294 293
304 304 304 304 304 305 305 305 305 305 305 305 305 305 305 305 305 305 304 304 302 302 304 306 308 308 309 309 309 309 309 310 310 310 310 309 308 308 307 307 306 306 306 306 305 305 304 303 302 302 302 301 299 297 296 295 294 294 294 293 293 293 293
304 304 304 304 304 304 305 305 305 305 305 305 305 304 304 304 303 303 303 303 303 303 305 306 307 307 307 307 307 308 309 309 309 309 309 308 307 306 306 305 305 305 305 304 304 303 303 302 301 301 299 297 296 294 294 293 293 293 293 293 293 293 293

ECMWFFLT1_850_thetae_036.txt.gz
Theta_e
313 310 307 307 308 308 308 307 307 307 308 309 311 317 319 318 318 317 317 318 320 320 321 321 321 321 320 320 321 322 324 325 325 326 326 325 326 326 326 327 326 326 326 325 325 325 325 325 325 324 324 323 323 322 322 322 322 322 322 323 324 324 324
315 311 308 307 307 306 307 307 306 306 307 307 310 316 318 318 318 316 316 317 318 319 319 320 320 319 319 318 317 317 321 324 325 325 325 325 326 326 326 326 326 326 326 325 325 325 324 324 323 322 321 321 320 320 320 322 322 322 322 323 324 323 323
314 310 307 307 307 307 307 306 306 306 306 306 310 315 317 317 316 315 315 315 316 316 316 316 315 314 313 313 313 313 316 321 324 325 325 325 325 326 326 326 326 326 326 325 325 324 323 322 322 321 319 318 318 317 317 319 320 321 322 322 322 322 322
313 309 308 307 307 307 306 306 306 306 306 305 308 313 315 315 313 310 309 309 310 310 309 308 307 306 306 308 312 314 315 318 319 319 322 323 324 325 325 325 325 325 325 324 323 323 323 322 322 321 319 318 316 316 316 316 317 318 319 319 319 319 319
314 310 308 307 307 306 306 306 306 306 306 306 307 310 313 313 309 306 305 305 306 306 306 305 304 304 304 306 310 312 312 311 308 309 312 316 320 323 323 324 324 323 323 323 323 323 323 322 321 318 316 316 316 316 315 316 317 318 319 318 318 318 318
316 310 308 308 307 306 306 306 306 306 306 306 306 308 310 309 306 305 305 306 306 306 306 306 306 305 305 306 306 307 306 306 305 306 306 308 313 318 319 320 321 321 321 322 322 322 320 319 319 318 316 315 315 315 315 316 317 318 320 321 320 319 318
318 310 307 308 307 307 306 306 306 305 306 306 306 307 307 307 306 305 306 306 306 306 306 306 306 306 306 306 306 306 306 306 306 306 306 305 307 309 310 311 312 313 315 316 316 313 311 309 311 315 317 316 315 315 315 315 315 315 318 320 321 320 319
319 311 308 308 307 307 307 306 306 306 306 306 306 306 306 305 306 305 306 306 306 306 306 306 306 306 306 306 306 306 306 306 306 306 306 306 305 305 305 305 305 306 306 307 306 305 305 304 305 308 311 313 313 314 315 314 314 314 314 315 317 319 320
318 311 308 308 307 307 307 306 307 306 306 306 306 306 305 306 306 305 306 306 306 306 306 306 306 305 305 305 305 305 305 305 305 305 305 305 305 305 304 304 304 304 303 303 303 303 303 303 304 303 305 308 310 313 313 312 313 313 312 312 312 313 315
315 311 308 308 307 307 307 307 307 307 306 306 306 306 306 306 306 306 306 306 306 306 306 306 305 305 305 305 305 304 305 304 304 304 304 304 304 304 303 303 303 303 303 303 303 304 303 303 303 303 303 305 308 312 312 310 309 309 309 309 309 309 309
313 311 309 308 308 309 309 307 307 307 307 307 307 306 306 306 306 306 306 306 306 306 306 306 305 305 305 305 305 305 305 304 304 305 304 304 304 304 304 304 304 304 305 305 305 306 305 304 304 303 303 303 305 309 312 310 307 306 306 305 305 305 305
313 313 311 309 308 311 313 309 307 308 307 307 307 307 307 307 306 307 307 306 306 306 306 306 306 306 305 305 305 305 305 305 305 306 306 306 306 306 306 305 306 306 306 307 307 307 307 307 307 306 306 305 305 306 308 308 306 305 305 305 305 305 305
312 314 315 311 309 311 314 310 307 308 307 307 308 307 307 308 307 308 307 307 307 307 307 307 306 306 306 306 306 305 306 306 306 306 306 306 307 307 307 307 307 307 307 307 307 308 308 308 308 308 308 308 307 307 306 306 306 306 306 306 306 306 307
313 317 316 314 312 312 312 311 308 308 308 308 309 310 310 310 309 309 309 309 309 309 308 308 307 307 307 306 306 306 306 306 306 306 306 306 307 306 306 307 306 307 307 307 307 307 307 307 308 308 308 308 308 308 307 307 307 306 306 306 306 306 306
314 318 318 317 316 312 310 310 309 311 312 312 313 314 315 315 314 314 314 313 312 312 311 311 311 310 309 308 308 307 307 307 306 306 306 306 306 306 306 306 306 306 306 306 306 307 307 307 307 307 307 307 307 307 307 307 306 306 306 305 305 305 305
317 319 320 319 318 314 313 311 310 313 315 315 316 317 317 318 317 317 317 316 316 316 315 315 315 314 313 313 312 311 310 310 309 308 307 307 306 306 306 306 306 306 306 306 306 307 307 308 308 308 308 308 308 308 308 308 308 307 307 306 306 305 305
318 318 320 320 319 318 316 312 311 315 318 318 318 318 319 319 318 318 318 317 317 318 317 317 317 317 316 316 316 316 316 315 314 313 312 311 310 309 308 308 308 307 307 307 307 308 310 311 311 312 311 311 311 311 311 311 311 311 310 309 308 307 307
319 319 320 320 319 319 317 312 312 317 319 319 319 319 319 319 318 318 318 318 318 318 318 318 318 318 317 316 317 318 318 318 318 317 317 316 316 314 313 312 311 310 309 309 309 310 312 313 314 314 314 313 313 313 313 313 313 313 312 311 309 308 308
320 319 320 320 319 320 317 313 313 317 319 320 320 319 318 316 315 316 317 318 319 318 318 318 317 317 316 316 316 317 318 318 319 319 318 317 317 318 317 316 314 314 313 312 312 312 314 314 314 314 314 314 314 314 313 312 312 312 312 312 311 310 310
319 319 320 319 319 318 317 315 314 314 315 316 318 317 316 315 314 315 316 317 318 317 317 317 316 316 316 316 316 317 318 319 319 319 318 318 318 318 318 318 317 316 316 315 314 314 314 314 314 314 314 314 313 313 313 312 312 312 312 312 311 311 311
319 319 320 320 319 317 316 314 314 313 313 314 315 316 317 317 317 317 317 317 316 316 316 316 316 316 316 317 318 318 318 318 318 318 319 319 318 318 319 318 318 317 317 316 315 315 314 313 314 314 314 313 313 313 313 312 312 311 311 311 311 311 310
319 318 318 317 317 318 317 314 314 315 316 316 316 318 318 318 318 318 318 317 316 316 316 316 317 318 318 319 319 318 318 318 317 317 318 319 319 319 318 318 317 317 317 317 316 316 315 314 314 314 314 314 313 312 312 312 311 311 310 310 309 309 309
320 319 318 316 316 318 318 316 316 318 319 318 318 318 317 317 317 318 318 318 316 315 315 316 317 318 319 319 319 319 318 318 318 317 318 319 318 318 318 317 316 316 317 317 317 316 316 315 314 313 313 313 313 312 312 311 311 310 310 309 309 308 307
320 319 319 317 317 318 318 317 318 319 319 319 318 318 318 318 317 317 317 316 316 315 316 317 317 318 319 319 319 319 319 319 319 319 319 319 319 318 318 318 317 317 318 318 317 316 315 314 314 314 313 312 312 312 311 311 310 309 309 308 308 307 307
320 319 319 319 318 318 318 318 318 319 318 318 318 318 318 317 317 316 316 316 316 316 317 318 318 318 319 319 319 319 319 319 318 318 318 319 319 319 319 318 318 318 318 318 317 316 315 314 314 314 313 312 311 311 311 310 310 309 308 308 307 307 306
320 320 320 320 320 319 318 318 318 318 317 317 317 317 316 315 315 315 314 314 315 315 315 316 317 316 316 316 315 315 314 314 314 314 315 316 317 317 317 317 317 317 318 318 318 317 316 315 313 313 312 312 311 311 311 310 309 309 308 307 307 307 306
315 317 318 318 318 317 317 316 316 315 314 314 315 314 313 313 312 312 312 312 312 312 313 313 313 313 312 312 312 311 311 311 311 312 313 313 313 313 313 313 313 314 316 317 317 317 317 315 314 312 311 311 311 311 310 310 309 308 308 307 307 306 306
312 313 313 314 314 313 313 312 312 312 312 312 311 311 310 310 310 310 310 309 309 309 309 309 309 310 311 311 311 311 312 312 312 312 312 311 311 310 310 309 310 311 314 316 317 317 317 315 314 312 310 310 310 310 310 309 308 308 307 306 306 305 305
309 309 309 311 311 311 310 309 309 310 310 309 309 308 308 307 307 306 305 305 305 305 305 306 307 307 308 308 309 309 310 311 311 311 312 312 311 310 309 309 310 311 313 316 317 316 315 314 313 312 310 310 309 309 309 309 308 307 306 305 305 305 305
307 307 307 308 309 309 308 308 308 307 306 306 305 305 305 304 303 302 302 301 301 301 301 302 302 303 303 304 305 306 307 308 309 311 311 311 311 309 308 308 309 311 313 315 316 315 314 312 311 310 309 308 308 309 308 308 307 305 305 305 305 305 305
306 306 306 306 307 307 307 307 306 305 304 303 303 303 303 303 303 302 302 302 301 301 300 300 300 300 301 301 302 304 305 306 308 310 311 311 310 309 307 306 307 309 312 314 314 313 312 310 309 309 308 308 308 308 307 306 305 304 305 305 304 304 303
306 306 306 306 306 307 307 307 305 304 304 304 304 304 304 303 303 303 303 303 302 302 301 300 300 300 299 299 300 302 304 306 308 310 310 310 310 309 307 306 306 308 310 311 312 311 309 308 307 307 308 308 308 307 306 305 304 304 304 303 303 302 301
306 306 306 306 306 307 307 307 306 305 305 305 306 305 305 304 304 303 303 303 302 302 301 300 300 299 299 299 300 302 305 307 309 310 310 310 309 309 307 306 307 308 309 309 309 309 308 307 307 308 308 307 306 305 305 304 304 304 303 302 301 300 298
305 306 306 306 306 306 307 306 306 306 306 306 305 305 304 304 304 304 304 304 303 303 303 302 301 300 300 301 303 304 306 308 309 309 309 309 309 308 308 307 307 308 309 308 308 308 308 307 307 306 306 305 305 304 304 304 303 303 302 301 300 298 296
306 305 306 306 306 306 306 306 306 306 306 306 305 305 304 304 304 304 304 304 304 304 304 303 302 301 301 302 304 306 307 307 308 308 309 309 309 309 308 308 307 307 307 307 307 306 306 305 305 304 304 304 304 304 303 303 302 302 301 299 297 295 294
305 305 306 306 306 306 306 305 305 305 306 306 305 305 304 304 304 304 304 304 304 304 304 303 302 302 301 302 303 304 305 305 306 307 308 309 308 308 307 307 307 306 306 305 305 304 304 304 304 304 304 303 303 303 303 302 300 299 297 295 294 294 293
304 304 305 305 305 305 304 305 305 305 305 305 305 304 305 305 304 304 304 304 304 303 303 303 303 303 303 302 302 303 303 303 305 307 308 308 307 307 306 306 305 305 304 304 303 303 303 303 303 303 303 303 302 301 299 297 296 294 294 293 293 293 293

ECMWFFLT1_850_thetae_042.txt.gz
Theta_e
318 311 308 307 307 307 306 311 313 310 312 317 318 317 317 316 316 318 319 319 320 320 320 320 320 320 321 322 323 324 325 327 328 329 330 329 328 328 327 327 328 327 327 326 325 325 326 326 324 323 324 324 324 324 324 323 323 323 323 324 326 326 323
311 306 308 307 306 307 306 309 313 312 312 314 315 315 316 316 316 319 319 319 319 320 322 321 320 320 321 322 322 324 326 327 327 328 329 328 328 328 327 326 327 328 327 327 326 325 325 325 324 323 323 323 323 322 322 322 322 323 322 323 325 324 324
308 307 308 306 306 308 307 306 309 314 316 314 312 312 313 313 314 316 317 316 315 317 319 319 318 320 322 321 319 321 325 326 326 326 327 327 328 328 327 327 327 328 327 328 327 327 326 326 325 324 323 323 322 320 320 320 320 322 322 321 322 322 322
308 308 307 306 307 309 309 308 309 313 316 315 311 308 307 307 308 310 310 310 308 309 313 316 317 318 320 319 318 318 322 324 325 325 326 327 328 328 328 328 327 327 328 327 327 327 327 327 325 323 322 322 321 319 318 317 317 318 318 317 317 317 319
308 307 307 306 307 308 308 308 309 310 312 313 310 307 305 305 306 306 306 306 306 305 310 315 316 316 317 316 315 314 314 316 320 323 324 325 326 327 327 328 327 327 327 327 327 326 326 325 323 322 321 320 319 318 316 316 315 315 315 315 316 316 317
308 307 307 306 307 308 307 306 309 311 312 312 310 306 305 306 306 306 306 306 306 305 307 310 310 312 316 315 311 309 308 307 311 316 320 322 324 325 324 325 325 325 325 325 325 326 326 324 322 321 320 319 319 317 316 316 314 314 313 314 314 315 316
310 307 307 306 307 308 306 307 309 310 311 309 307 306 306 306 306 306 306 306 306 306 306 306 306 307 313 314 309 306 306 305 307 309 312 315 318 319 320 321 322 322 322 323 323 324 325 324 323 322 320 319 318 317 316 316 315 314 312 312 312 313 316
313 308 307 307 306 307 306 306 307 308 308 307 306 306 306 306 306 306 306 306 306 306 306 306 306 305 308 310 307 305 306 305 305 306 306 307 308 310 312 315 317 317 317 317 318 320 322 322 321 320 320 319 318 318 317 315 314 313 311 311 311 311 316
317 309 307 307 306 306 306 305 305 305 306 306 306 306 306 306 306 306 306 306 305 305 305 305 305 305 305 306 305 305 305 305 305 305 305 304 304 304 305 306 308 308 308 309 310 311 315 319 319 318 318 318 317 317 317 316 315 313 310 310 309 309 312
319 311 307 307 307 306 306 305 305 305 305 306 306 306 306 306 306 306 306 306 305 305 305 305 305 305 304 305 304 304 304 304 304 304 304 303 303 303 303 303 304 304 303 304 305 305 307 313 317 318 318 317 316 316 317 317 315 313 311 309 307 306 307
320 314 308 307 307 307 307 306 305 305 305 306 306 306 306 306 306 306 306 306 306 306 305 305 305 305 304 304 304 304 304 303 304 303 303 303 304 304 304 304 305 305 304 303 304 303 303 306 312 315 316 316 316 316 315 316 316 313 310 308 306 304 304
321 317 310 307 307 307 307 307 306 306 306 306 306 306 306 306 306 306 307 306 306 306 306 306 305 305 305 305 305 304 304 304 304 304 304 304 304 305 305 306 306 306 306 306 306 305 304 306 309 311 312 314 315 316 315 315 316 313 310 306 305 305 305
321 319 313 308 307 308 307 309 309 307 306 306 306 306 307 307 307 307 307 307 307 307 307 306 306 306 306 306 306 306 305 306 306 305 305 306 306 306 306 307 307 307 308 309 308 308 307 308 309 310 311 312 313 314 315 315 314 311 308 306 305 305 306
321 320 316 309 306 308 309 312 312 309 307 307 307 307 307 307 307 308 308 308 309 308 308 308 307 307 307 306 306 306 306 307 308 307 306 306 306 307 307 307 307 307 308 308 308 309 308 308 309 309 310 311 311 312 313 314 312 308 306 307 307 307 308
322 320 318 312 307 308 311 314 314 310 308 308 307 308 308 308 308 309 309 310 310 311 311 311 311 310 310 309 308 307 307 308 308 307 306 307 307 306 307 307 307 306 307 307 308 309 309 309 310 309 309 309 310 311 311 312 311 310 309 311 311 310 311
322 322 320 315 309 308 311 314 313 310 308 308 308 308 309 309 309 310 310 312 312 313 313 314 315 315 314 312 311 311 310 310 309 308 308 309 309 308 308 308 307 306 306 307 307 309 310 311 311 310 310 311 311 311 312 312 313 313 311 312 311 309 310
323 322 321 317 312 308 310 312 312 309 307 308 308 309 311 312 312 312 312 314 315 315 315 316 317 317 317 316 315 315 315 314 313 312 312 312 311 310 310 310 310 308 307 307 307 308 310 313 312 311 312 312 312 313 314 313 313 313 312 311 310 308 309
323 322 321 319 315 311 309 310 312 310 309 308 308 311 314 315 316 316 316 317 317 316 316 317 317 318 318 317 317 317 317 318 318 317 316 315 315 314 313 313 313 312 310 310 310 310 311 312 312 312 311 311 311 313 314 313 312 313 312 311 311 311 310
323 322 321 319 317 315 312 312 313 311 310 310 309 312 316 318 319 319 319 319 319 317 317 317 317 318 318 318 318 318 317 317 318 318 319 318 317 316 316 316 315 314 313 312 313 312 311 310 310 310 310 309 309 312 313 313 312 312 313 312 312 311 311
324 323 321 319 317 318 317 318 317 314 312 311 311 313 316 317 318 320 320 320 319 319 317 316 316 317 317 317 317 317 316 316 316 317 318 318 318 318 317 316 316 316 316 315 314 313 311 310 310 311 311 310 309 310 312 312 312 312 312 312 312 312 311
324 324 323 320 320 321 320 320 320 318 315 312 312 314 315 316 317 319 318 317 318 317 315 315 316 316 316 316 316 316 316 316 316 316 316 317 318 318 317 317 317 317 317 317 316 315 314 313 313 313 314 313 310 309 311 311 311 312 312 313 312 312 312
325 325 324 323 323 323 322 321 321 320 317 314 313 315 316 316 318 319 317 315 316 316 316 317 318 317 317 316 316 315 316 317 317 317 317 318 318 318 318 318 318 317 318 318 318 317 316 315 315 315 315 315 313 311 311 311 311 312 312 313 313 312 312
325 325 325 324 323 323 323 322 321 320 319 318 318 318 316 316 318 319 317 316 316 317 317 317 317 317 317 317 316 316 316 317 317 318 318 318 319 319 318 318 319 318 318 318 318 318 317 316 315 316 315 315 315 313 312 311 311 312 312 313 312 312 312
324 324 324 323 323 322 322 322 321 321 321 320 319 318 316 315 316 316 317 316 316 317 317 317 317 317 316 316 316 316 316 317 318 318 318 318 318 318 318 318 318 318 318 318 318 317 317 316 315 316 316 316 316 314 313 311 311 311 312 312 312 312 312
324 323 323 323 322 322 321 321 321 321 320 320 319 318 317 316 317 318 318 318 317 318 317 317 316 316 316 316 316 316 317 317 317 318 317 317 317 317 316 317 317 316 316 316 318 318 318 318 317 317 317 317 317 316 315 313 312 311 311 312 312 311 311
322 322 322 322 322 321 321 320 320 320 320 319 319 319 318 318 318 319 319 319 319 318 317 316 315 315 316 316 316 316 317 317 317 317 316 315 315 314 314 315 315 314 312 312 313 314 314 315 316 317 317 317 317 317 316 315 313 312 311 311 310 310 310
322 321 321 321 321 321 320 320 320 319 319 319 319 318 318 319 319 319 319 319 318 317 316 315 314 314 314 315 314 313 313 313 312 313 313 312 312 312 311 311 313 313 311 310 310 309 309 310 311 313 316 316 316 315 314 313 313 312 311 310 309 309 309
318 319 319 319 319 320 320 320 320 319 319 319 319 318 318 319 318 318 318 316 314 313 313 313 312 312 312 311 310 309 309 308 309 312 312 310 310 311 309 308 309 310 309 308 307 306 308 310 309 309 313 315 315 314 313 312 311 311 311 310 309 308 308
313 314 314 315 317 318 318 318 318 318 318 318 317 317 317 318 317 315 314 312 311 311 311 310 310 309 308 307 306 306 308 308 310 312 311 310 310 309 308 307 308 309 308 306 304 304 305 308 309 311 313 315 314 313 313 311 310 310 310 309 308 307 307
310 310 311 313 314 314 314 314 314 314 315 315 315 314 314 314 313 312 311 310 309 308 307 305 304 303 303 303 302 303 306 309 310 310 309 309 309 309 308 308 308 309 308 306 304 304 303 305 309 313 314 313 312 312 311 310 309 309 308 307 307 306 307
309 309 310 311 312 311 310 311 310 311 313 313 313 312 312 311 310 309 309 307 306 304 302 301 301 301 301 301 301 303 307 310 310 309 308 307 308 309 309 309 309 308 308 306 305 305 304 306 310 313 313 312 310 309 309 309 308 307 306 306 306 306 306
307 308 309 310 309 309 310 310 308 310 311 311 311 310 309 308 307 306 305 304 303 302 302 302 302 302 302 302 301 304 310 312 311 309 309 309 308 309 309 309 308 308 307 306 305 305 304 306 309 310 310 310 308 307 308 308 307 306 305 305 306 306 305
306 307 308 308 307 309 310 309 307 307 309 309 309 308 308 307 306 304 303 302 302 303 303 303 303 303 303 303 302 304 309 311 310 308 309 309 309 308 308 308 308 307 306 305 305 305 304 304 305 306 307 308 307 307 307 306 305 305 305 305 305 304 304
306 306 306 306 306 307 308 308 307 306 307 308 308 306 306 306 304 303 303 303 303 303 303 303 304 303 304 304 303 304 307 309 309 309 309 308 309 308 306 306 306 305 305 304 304 304 304 304 305 305 305 306 306 305 305 305 304 304 304 304 304 303 303
305 306 306 306 306 306 306 307 307 307 307 307 306 305 304 305 304 304 304 304 304 304 304 304 304 304 304 304 303 303 305 305 305 307 308 308 308 307 305 304 305 305 304 304 304 304 304 304 304 304 305 305 305 304 304 304 304 303 303 302 301 300 300
303 304 305 305 306 305 306 306 307 308 308 307 306 305 305 304 305 304 304 304 305 305 305 304 304 304 304 304 303 302 302 302 301 304 307 308 307 304 303 303 305 304 304 304 304 303 304 304 304 304 303 303 303 303 302 302 302 301 300 299 297 297 297
301 302 303 304 304 305 305 306 306 308 309 308 308 307 306 306 306 305 305 306 305 305 305 304 304 304 303 303 302 301 301 301 300 302 305 306 304 302 301 302 303 304 304 304 303 303 303 303 303 302 301 301 301 301 301 300 299 298 297 296 296 296 297

ECMWFFLT1_850_thetae_045.txt.gz
Theta_e
326 323 323 323 322 321 321 319 318 321 324 324 323 323 323 322 322 323 323 323 323 323 323 323 324 323 321 322 324 324 324 324 324 325 326 326 327 328 326 326 326 326 325 325 325 326 327 327 326 325 326 326 325 325 325 324 324 323 323 322 323 323 323
322 317 319 319 318 319 321 321 321 322 324 323 323 323 323 323 323 323 323 323 323 323 323 322 323 322 320 321 322 322 323 323 323 324 324 325 326 327 326 326 327 326 326 326 326 326 326 327 326 325 325 324 324 323 323 323 323 323 323 323 323 322 322
319 319 320 316 315 316 319 321 321 322 323 323 323 323 323 323 323 323 323 323 322 321 322 322 323 322 322 322 321 321 323 323 323 324 324 325 325 325 325 326 327 327 327 326 327 326 326 326 325 325 325 324 323 322 322 322 322 322 321 321 321 320 320
318 320 319 315 316 318 319 320 322 323 323 322 321 319 319 320 320 321 320 319 318 319 322 323 323 322 323 322 321 321 322 323 324 324 324 325 325 325 325 325 326 326 325 325 326 325 324 324 324 324 324 323 322 321 320 320 320 320 318 317 318 318 318
318 319 319 319 320 320 320 321 323 323 323 321 319 315 313 314 315 315 314 312 313 318 321 321 321 321 320 320 319 318 317 319 323 324 324 324 324 326 325 324 326 326 325 324 326 325 323 324 324 324 323 322 321 319 319 318 318 318 318 317 317 318 318
321 321 321 321 321 320 320 321 322 322 322 320 316 312 310 312 312 312 312 310 309 314 317 318 319 320 319 317 315 313 311 313 317 322 323 322 322 323 324 324 325 325 325 325 325 324 324 324 323 322 322 321 320 319 317 317 316 316 316 317 317 317 317
325 323 322 322 320 319 319 320 321 321 321 318 314 311 311 311 309 308 309 308 308 309 310 311 315 317 318 315 311 309 308 307 309 313 315 317 319 321 321 322 322 322 322 324 324 324 324 324 323 322 322 321 320 319 317 317 316 314 314 314 315 317 317
325 323 322 321 319 317 319 320 320 320 319 316 312 309 309 308 307 306 306 306 307 307 308 310 313 314 315 313 308 306 307 306 306 307 308 310 314 318 318 318 319 319 318 319 321 322 323 323 322 322 321 320 319 318 317 316 314 313 312 312 313 314 315
325 323 322 320 316 316 319 319 318 318 316 312 308 306 306 306 306 306 306 306 306 307 308 311 313 311 311 310 307 306 307 306 306 307 307 307 308 310 312 314 315 315 315 314 317 319 321 321 320 320 319 318 317 317 316 316 314 313 311 310 310 311 312
323 322 322 318 314 316 318 318 318 315 310 307 306 305 306 306 306 306 306 305 305 305 306 308 309 308 308 308 307 306 306 305 305 306 306 306 305 306 310 313 314 313 312 311 312 315 318 319 319 320 319 317 317 316 316 317 315 313 311 310 309 309 309
321 319 318 313 309 311 313 313 313 310 305 305 305 305 305 305 305 306 306 304 304 305 306 306 307 306 306 306 305 305 305 305 305 304 304 305 305 306 309 313 312 309 309 309 309 311 315 316 316 317 317 317 317 317 316 317 316 313 312 310 308 307 307
322 317 311 309 307 307 307 308 307 306 305 305 305 305 305 305 305 305 306 305 305 305 305 305 306 306 306 306 306 306 305 306 306 305 306 307 306 307 309 312 313 312 311 311 311 312 314 314 314 314 315 316 317 317 317 317 316 314 311 309 308 307 307
325 320 311 307 307 306 307 308 307 306 306 305 305 305 305 306 305 306 306 306 306 306 306 306 306 307 308 309 310 308 307 308 309 309 309 310 311 311 311 311 311 313 314 314 313 313 313 314 313 313 314 315 316 317 317 317 317 313 310 309 308 307 308
325 323 315 308 306 308 308 308 307 306 306 306 305 306 306 306 306 306 307 307 307 306 307 306 307 308 310 310 310 308 309 312 312 310 310 311 312 312 313 312 310 310 312 313 314 313 312 313 313 313 314 314 314 315 316 316 314 312 309 308 309 309 310
324 324 320 311 309 312 308 306 307 306 306 306 306 308 308 306 307 309 309 310 309 308 308 308 309 310 309 308 308 308 311 313 312 310 310 312 311 310 311 313 311 309 309 311 313 314 313 313 313 312 313 314 314 314 315 314 313 312 311 310 311 310 311
325 325 323 316 313 315 310 307 306 306 310 311 311 314 313 309 311 314 314 315 314 313 313 311 310 312 310 309 308 308 309 310 309 308 310 312 313 310 310 310 309 308 307 309 311 313 314 314 314 314 314 314 315 315 316 316 315 315 314 313 312 311 311
325 325 324 320 317 315 311 309 310 311 316 318 317 318 316 313 316 317 317 318 317 317 316 313 313 316 316 315 314 312 312 312 311 312 314 315 315 313 312 312 311 309 309 310 311 313 315 315 315 315 315 316 316 316 316 316 317 316 315 314 313 312 312
325 324 323 322 321 318 313 314 316 317 320 320 320 320 318 317 319 319 319 319 318 319 319 317 318 320 320 319 320 319 318 318 317 317 318 317 316 316 316 316 316 313 312 313 313 313 315 316 316 315 315 315 315 316 316 316 316 316 316 315 314 313 313
326 325 323 323 323 322 318 317 320 321 320 320 320 320 319 319 320 320 320 320 319 320 320 320 321 321 321 320 320 320 320 320 319 320 319 318 318 318 318 318 318 317 315 315 315 315 315 315 315 315 314 313 313 314 315 315 316 316 316 316 315 314 314
327 325 324 323 323 323 322 319 319 320 320 320 321 320 320 320 321 320 320 320 320 321 321 321 322 322 322 322 321 320 319 318 319 320 319 319 320 320 319 320 319 318 317 317 316 316 315 314 315 315 315 314 313 314 315 315 315 315 315 315 315 315 314
327 325 324 323 322 322 322 322 320 320 320 320 321 321 321 320 320 320 320 320 321 321 321 322 323 323 323 322 322 321 320 318 319 320 319 319 320 321 320 320 320 319 319 318 317 317 316 315 314 314 315 315 314 315 315 314 314 315 315 315 315 314 314
327 326 325 324 323 322 322 323 322 321 321 321 320 321 320 320 321 321 320 321 322 322 322 322 322 322 321 322 323 322 321 320 319 320 320 319 320 321 321 321 321 320 320 318 318 318 318 317 316 316 316 316 315 315 314 314 314 315 315 315 315 315 314
327 326 325 325 325 324 322 322 322 322 322 322 321 320 320 321 322 321 322 322 322 322 322 321 319 318 318 320 321 321 322 321 319 320 321 321 320 320 321 321 321 320 319 318 318 318 317 318 318 317 317 317 316 315 314 314 314 315 315 315 315 315 314
326 326 325 326 325 325 324 322 322 322 322 322 320 319 320 322 322 321 322 321 320 320 321 319 317 317 317 317 317 318 321 322 320 319 319 320 320 319 320 321 320 319 318 318 318 318 318 318 318 317 316 316 316 315 315 315 314 314 314 315 315 314 314
325 325 325 325 324 324 324 323 323 322 321 321 319 319 320 322 321 319 319 319 319 319 319 317 316 317 317 317 316 316 318 320 320 318 317 317 319 318 318 320 319 317 316 315 315 316 316 316 317 317 317 317 316 316 316 316 315 314 314 314 314 314 314
324 324 324 324 323 323 322 322 321 320 319 319 319 319 320 320 319 318 317 318 321 321 319 316 316 317 318 317 316 316 316 317 318 317 316 316 316 317 317 318 318 316 313 312 310 310 310 311 312 314 316 317 317 317 317 317 316 315 314 313 313 313 312
324 323 323 323 323 322 320 319 319 318 319 319 319 320 321 320 319 318 317 318 320 319 317 316 317 318 317 316 316 316 317 317 316 316 316 316 316 317 316 316 316 315 314 312 309 308 312 312 309 308 309 312 314 314 315 316 316 315 314 313 312 311 311
322 322 322 321 322 321 320 319 319 320 321 321 320 320 320 319 319 318 318 318 317 317 316 316 317 315 313 314 314 313 314 316 316 315 315 316 315 315 315 314 314 314 314 313 309 306 309 312 312 309 306 306 309 310 310 312 313 313 314 314 312 311 311
318 319 319 319 320 321 321 321 321 322 321 320 321 321 319 319 319 319 318 318 317 317 317 315 314 311 310 311 310 309 311 314 315 314 315 315 315 315 313 312 313 315 313 310 307 304 304 305 309 312 309 307 309 309 307 309 312 313 313 313 312 311 310
313 314 315 315 317 318 319 320 321 321 320 320 321 320 319 318 318 317 318 317 316 315 314 313 311 309 308 308 306 308 313 314 314 314 315 315 314 313 310 307 310 314 311 306 304 304 303 302 305 311 313 310 310 309 308 310 312 312 312 311 310 310 310
311 312 312 312 314 316 317 317 318 319 319 319 319 318 317 316 315 316 316 316 314 312 311 310 309 306 304 303 302 307 312 312 312 313 313 313 313 311 307 305 306 308 307 305 304 303 303 302 305 311 312 311 310 309 308 309 310 311 310 309 309 308 308
311 311 311 312 313 314 315 315 316 316 316 316 316 316 316 315 314 314 314 313 313 311 308 307 304 301 302 301 301 306 311 311 312 313 313 314 313 309 306 306 306 305 305 305 304 303 302 302 305 310 312 310 310 309 309 308 308 308 308 307 306 306 306
311 311 311 312 313 313 313 313 314 314 314 313 314 314 314 313 313 312 312 311 310 309 306 303 302 302 302 302 303 306 311 312 312 313 312 313 313 311 307 306 306 306 305 304 303 303 302 302 304 308 309 309 309 309 309 309 308 307 307 305 305 305 305
310 310 310 311 312 311 312 312 312 313 312 312 312 312 311 311 310 310 311 310 308 308 306 302 302 303 303 303 304 306 309 311 311 312 311 311 312 311 309 306 305 304 303 303 302 303 303 303 303 305 306 307 307 308 308 307 307 306 305 304 304 304 303
307 306 307 309 310 310 310 311 311 312 311 311 310 311 310 310 309 309 310 309 308 309 308 303 302 304 303 304 304 304 306 309 309 309 310 311 310 311 309 306 303 301 302 302 301 302 302 302 303 304 304 305 306 306 306 305 305 304 303 303 303 303 302
304 304 305 305 307 308 309 310 310 311 311 310 310 310 310 310 309 309 309 309 309 310 309 304 304 305 304 304 305 304 304 306 305 305 309 310 309 310 308 304 301 300 301 301 301 301 302 301 302 303 303 303 303 303 303 303 303 302 302 302 301 301 300
304 304 304 304 304 305 307 309 310 310 310 310 310 310 310 310 309 309 309 309 309 310 308 304 304 305 304 304 304 304 304 304 303 303 306 310 310 308 305 301 301 301 301 301 302 302 302 302 302 302 302 302 301 301 300 301 301 301 300 300 300 300 300

ECMWFFLT1_850_thetae_048.txt.gz
Theta_e
329 326 324 324 322 317 316 318 319 322 324 323 323 324 323 322 321 320 321 324 324 323 324 323 321 320 321 324 326 325 325 324 324 325 325 326 326 326 326 326 326 325 324 326 327 327 327 326 326 326 326 325 325 324 324 324 323 323 323 323 323 323 323
327 322 321 320 316 316 319 321 323 325 324 324 324 324 324 323 321 322 322 323 324 323 324 323 320 321 322 323 323 323 324 324 323 324 325 326 326 325 326 326 325 325 324 325 326 326 326 326 325 325 324 323 323 323 323 323 323 322 321 321 322 322 321
324 320 320 316 314 320 323 322 322 323 323 323 323 323 324 324 324 324 322 320 322 322 323 322 322 322 322 321 320 322 324 324 324 324 325 325 325 325 325 325 326 325 325 325 325 326 326 325 325 324 323 322 322 323 322 322 322 321 320 318 319 321 321
321 320 319 313 313 318 321 321 321 323 323 320 319 319 320 320 320 321 320 320 321 322 323 323 323 323 321 319 317 320 323 324 324 325 325 325 325 325 325 325 325 325 324 324 324 325 326 325 324 323 322 322 321 321 320 320 320 319 319 318 319 321 321
319 318 313 311 314 318 321 323 324 323 320 316 312 312 314 315 316 316 317 319 321 323 322 322 321 321 320 318 315 316 320 322 323 324 324 325 324 324 324 324 325 324 324 324 323 324 324 324 323 322 321 320 320 320 319 319 319 318 318 317 317 319 320
317 314 310 313 319 320 322 325 325 322 320 315 310 310 313 315 315 314 312 313 317 320 321 320 319 319 318 317 313 312 314 317 320 321 322 323 324 323 323 323 324 324 324 324 323 324 323 323 323 322 320 319 318 318 318 318 318 317 318 317 317 318 319
314 312 313 319 321 321 322 324 324 322 321 316 310 311 313 311 310 309 307 308 311 314 317 318 318 318 317 313 310 308 308 309 311 314 318 321 322 322 322 322 322 322 323 324 324 323 323 322 322 321 319 319 318 317 316 315 315 315 316 317 317 317 318
311 312 317 321 321 321 321 322 323 323 321 315 310 310 310 307 306 306 306 306 307 309 312 315 315 315 313 308 306 306 306 306 306 309 315 319 319 319 319 319 319 320 321 322 323 323 322 322 322 320 319 319 318 317 315 313 313 313 314 315 315 315 313
313 316 321 321 320 320 320 322 322 322 320 313 308 308 306 306 306 305 306 306 306 307 309 311 310 309 308 306 306 306 306 306 306 307 311 314 315 316 316 316 316 317 319 321 321 321 321 320 320 320 319 319 318 317 314 312 312 311 312 312 312 312 310
320 321 322 319 317 318 320 322 321 321 318 310 306 306 305 305 305 305 305 305 305 306 308 308 306 305 305 305 305 305 305 306 305 305 306 308 311 313 314 312 312 313 315 319 321 321 320 320 319 319 319 318 318 316 314 312 311 310 310 310 309 309 308
321 322 323 317 314 316 320 321 320 319 315 307 305 306 304 305 305 304 305 305 304 305 306 307 305 305 305 304 305 305 304 304 304 305 304 306 309 310 310 309 308 308 309 314 318 318 318 318 319 318 318 318 317 317 316 314 312 311 309 308 308 308 307
318 320 321 315 311 314 318 319 320 317 311 305 305 305 305 305 305 305 305 305 305 305 305 305 305 305 305 305 305 305 305 306 307 307 307 308 309 309 310 311 312 311 310 310 313 315 315 315 315 316 316 317 318 317 316 315 313 311 310 308 308 307 308
315 314 314 311 309 310 312 315 318 315 308 304 305 305 305 306 306 306 306 306 306 306 306 306 306 306 307 307 306 307 309 310 310 311 312 312 311 310 310 311 313 314 313 312 312 313 314 314 314 314 314 315 317 317 316 315 313 310 310 309 308 308 308
318 315 311 308 307 307 308 310 313 311 306 305 305 305 306 306 306 307 307 307 307 307 307 308 307 308 308 309 308 309 312 312 311 312 313 313 312 312 311 310 311 312 313 313 313 313 313 313 314 314 314 314 316 316 316 315 313 310 309 309 309 309 309
321 319 315 309 306 307 307 306 308 308 306 305 305 305 306 306 307 307 308 308 308 308 309 308 309 309 309 309 309 310 312 312 310 310 312 311 310 311 311 310 309 310 311 314 315 314 314 314 313 314 314 314 315 315 314 314 314 312 311 311 310 311 311
322 321 319 313 307 307 307 306 307 306 305 305 305 308 310 308 308 308 307 308 308 308 309 309 309 309 309 309 309 309 310 310 309 309 310 312 312 310 310 309 309 309 309 312 313 313 314 315 314 314 315 315 315 315 315 315 316 316 314 313 312 311 312
321 322 322 317 309 308 308 306 307 305 306 306 304 310 314 310 310 312 310 310 309 309 309 309 309 309 309 309 309 309 309 309 309 308 310 314 314 312 311 310 309 309 308 309 310 311 313 315 315 315 316 316 316 316 317 317 316 316 315 314 312 312 313
321 321 324 321 314 312 310 307 307 306 307 308 308 314 316 312 314 317 315 315 315 313 312 310 309 310 309 309 310 309 310 311 312 311 312 315 315 315 315 314 314 313 311 310 311 313 314 316 316 316 316 317 316 316 316 317 317 316 316 315 314 313 313
320 321 324 323 319 318 315 309 307 308 311 314 314 318 318 315 317 318 317 319 319 318 318 315 314 315 313 313 314 314 315 316 316 316 317 317 316 317 317 317 318 317 315 314 314 315 315 315 316 315 315 315 316 315 315 316 316 316 316 316 316 315 314
321 322 325 324 321 322 319 313 310 312 317 319 319 320 319 317 319 319 318 320 319 319 320 319 319 320 319 319 320 318 319 319 317 318 318 317 318 318 318 318 319 318 317 316 316 316 315 314 315 315 315 315 314 314 315 316 316 316 316 316 316 315 315
324 324 324 324 323 323 321 318 317 318 320 320 320 321 319 319 320 320 319 320 319 319 320 320 320 320 321 322 321 320 320 320 319 319 320 320 320 320 320 320 320 319 319 318 317 317 316 316 316 315 314 315 314 314 315 315 315 315 316 316 315 315 315
324 323 323 323 323 322 321 320 320 320 320 320 320 321 320 320 320 320 319 319 319 319 320 320 319 319 320 322 322 320 320 321 321 320 321 321 320 319 319 319 319 319 320 320 319 318 318 318 318 316 315 315 315 315 315 315 315 315 315 316 316 315 315
324 323 323 324 324 321 320 320 320 319 319 320 320 320 320 320 320 320 320 320 319 319 320 319 318 318 320 322 321 319 320 320 319 318 318 318 319 319 318 318 318 317 318 319 320 319 318 318 318 317 317 317 317 316 316 315 315 315 315 315 315 315 315
325 325 324 324 324 322 321 321 320 320 320 320 320 320 320 320 320 320 320 320 320 320 319 318 318 319 320 321 320 319 319 320 318 317 316 316 317 318 318 317 317 316 316 317 319 319 318 318 318 318 318 317 317 317 316 316 316 315 315 315 315 315 315
325 325 325 324 324 323 322 322 321 320 320 320 320 321 321 320 320 319 320 320 320 319 318 317 317 318 318 317 317 317 318 319 318 317 317 316 316 317 317 316 316 316 315 316 318 317 317 317 318 318 317 317 317 316 316 316 316 316 316 315 315 315 315
324 324 324 324 324 324 323 322 321 321 321 320 321 321 321 321 320 319 319 320 320 320 319 318 317 317 316 315 314 316 317 318 317 316 316 316 316 316 317 316 316 315 315 315 314 312 311 312 313 314 314 315 315 316 316 316 316 316 316 316 315 315 314
324 323 323 323 323 323 323 322 321 321 320 320 320 321 321 321 320 319 319 319 320 320 319 317 316 316 315 314 315 317 317 317 316 316 316 315 315 316 316 316 315 314 314 313 310 309 310 310 309 309 310 310 311 311 312 312 312 313 314 315 315 314 313
321 322 322 322 322 322 322 321 321 320 320 319 319 319 320 320 320 319 319 318 319 318 317 317 316 316 316 315 316 317 317 316 316 315 315 316 315 316 316 315 315 315 315 312 309 311 313 310 307 306 307 307 307 306 306 306 307 308 310 312 314 314 314
317 318 319 320 320 320 320 320 319 318 318 318 318 318 319 319 318 318 318 317 317 316 317 317 316 316 316 316 316 316 315 315 315 315 315 315 315 315 315 315 315 315 314 313 310 310 310 307 307 309 309 307 304 303 304 304 305 306 309 311 312 313 313
313 314 315 315 316 317 318 318 318 317 317 317 318 317 317 317 317 318 317 317 316 316 317 317 317 317 316 315 314 313 310 312 314 315 315 315 315 315 315 314 314 314 313 312 309 306 305 304 306 310 313 311 307 306 306 304 304 305 307 310 312 312 312
312 312 313 313 314 316 316 316 317 317 317 317 317 316 315 314 315 316 315 315 315 316 317 316 317 317 315 313 311 309 308 312 315 314 314 315 315 315 314 313 312 311 310 308 306 303 303 302 302 305 311 313 312 310 308 306 305 306 307 308 310 310 310
312 312 312 313 314 314 315 315 315 316 316 316 316 315 314 313 314 315 316 316 316 316 316 314 314 314 313 310 308 306 309 313 314 313 314 314 314 314 314 311 308 306 305 304 302 302 301 301 301 302 307 311 312 311 310 308 308 308 307 307 307 306 307
311 311 311 312 312 313 313 313 314 314 315 315 315 315 315 314 315 315 316 316 316 315 314 312 310 309 307 306 303 303 309 314 313 312 313 314 313 313 312 308 304 302 302 302 301 301 301 300 301 302 305 309 310 310 310 310 309 309 308 308 307 306 305
309 308 309 309 310 311 311 312 312 313 313 313 314 314 314 314 314 314 314 315 315 314 313 312 308 305 303 302 301 302 307 313 313 312 313 313 312 312 311 307 304 302 301 301 300 301 300 300 300 302 305 308 309 309 309 309 309 309 308 307 306 304 303
305 305 306 306 307 308 309 309 311 312 312 312 312 312 312 312 312 312 312 312 313 312 312 310 307 303 301 301 302 301 305 310 312 312 312 311 312 312 311 309 305 302 301 301 300 300 300 300 300 301 302 305 306 306 307 308 308 307 306 305 304 303 303
302 303 304 304 305 305 306 307 308 310 311 311 312 312 311 311 311 311 311 311 311 311 310 309 307 303 301 302 303 302 305 309 311 311 311 311 311 311 311 310 307 303 300 300 300 300 300 300 300 300 300 301 302 303 304 305 305 304 303 303 302 302 302
302 303 304 304 305 306 305 305 305 307 308 310 311 311 311 311 311 311 310 310 310 310 310 309 308 305 303 303 304 303 304 306 308 309 308 309 310 309 310 310 307 302 300 300 301 300 300 300 300 300 300 300 300 301 301 301 301 302 301 301 301 300 300